Wetterdaten: Samstag, 12.11.2016
Datum Zeit Temp. A. Feuchte A. Luftdruck Regen Wind Richtung Richtung Sonnenschein ET UV Solar Taupunkt Windchill Windben Empfang
12.11.2016 00:00 4,1 C 97 % 1018,4 hPa 0,0 l/m 5,4 km/h (1 Bft) W 271 0 min 0,000 mm 0,0 UV-I 0 W/m 3,7 C 4,1 C 9,7 km/h (2 Bft) 100,00 %
12.11.2016 00:02 4,1 C 97 % 1018,4 hPa 0,0 l/m 5,0 km/h (1 Bft) SW 236 0 min 0,000 mm 0,0 UV-I 0 W/m 3,7 C 4,1 C 6,4 km/h (2 Bft) 97,30 %
12.11.2016 00:04 4,1 C 97 % 1018,3 hPa 0,0 l/m 4,7 km/h (1 Bft) W 261 0 min 0,000 mm 0,0 UV-I 0 W/m 3,7 C 4,1 C 6,4 km/h (2 Bft) 97,92 %
12.11.2016 00:06 4,1 C 97 % 1018,4 hPa 0,0 l/m 6,5 km/h (2 Bft) W 267 0 min 0,000 mm 0,0 UV-I 0 W/m 3,7 C 4,0 C 11,3 km/h (2 Bft) 100,00 %
12.11.2016 00:08 4,1 C 97 % 1018,4 hPa 0,0 l/m 9,7 km/h (2 Bft) W 263 0 min 0,000 mm 0,0 UV-I 0 W/m 3,7 C 1,3 C 14,5 km/h (3 Bft) 97,92 %
12.11.2016 00:10 4,1 C 97 % 1018,4 hPa 0,0 l/m 7,1 km/h (2 Bft) W 263 0 min 0,000 mm 0,0 UV-I 0 W/m 3,7 C 3,5 C 11,3 km/h (2 Bft) 98,00 %
12.11.2016 00:12 4,1 C 97 % 1018,4 hPa 0,0 l/m 6,3 km/h (2 Bft) W 262 0 min 0,000 mm 0,0 UV-I 0 W/m 3,7 C 4,1 C 11,3 km/h (2 Bft) 97,37 %
12.11.2016 00:14 4,1 C 97 % 1018,4 hPa 0,0 l/m 7,0 km/h (2 Bft) W-SW 251 0 min 0,000 mm 0,0 UV-I 0 W/m 3,7 C 3,6 C 11,3 km/h (2 Bft) 97,87 %
12.11.2016 00:16 4,1 C 97 % 1018,4 hPa 0,0 l/m 8,5 km/h (2 Bft) W 272 0 min 0,000 mm 0,0 UV-I 0 W/m 3,7 C 2,2 C 12,9 km/h (3 Bft) 97,87 %
12.11.2016 00:18 4,1 C 96 % 1018,4 hPa 0,0 l/m 6,3 km/h (2 Bft) W 268 0 min 0,000 mm 0,0 UV-I 0 W/m 3,5 C 4,1 C 9,7 km/h (2 Bft) 97,87 %
12.11.2016 00:20 4,1 C 96 % 1018,3 hPa 0,0 l/m 7,3 km/h (2 Bft) W 275 0 min 0,000 mm 0,0 UV-I 0 W/m 3,5 C 3,3 C 11,3 km/h (2 Bft) 97,87 %
12.11.2016 00:22 4,1 C 96 % 1018,4 hPa 0,0 l/m 6,2 km/h (2 Bft) W 259 0 min 0,000 mm 0,0 UV-I 0 W/m 3,5 C 4,1 C 14,5 km/h (3 Bft) 97,87 %
12.11.2016 00:24 4,1 C 96 % 1018,4 hPa 0,0 l/m 6,4 km/h (2 Bft) W 263 0 min 0,000 mm 0,0 UV-I 0 W/m 3,5 C 4,1 C 11,3 km/h (2 Bft) 100,00 %
12.11.2016 00:26 4,1 C 96 % 1018,3 hPa 0,0 l/m 6,8 km/h (2 Bft) W 268 0 min 0,000 mm 0,0 UV-I 0 W/m 3,5 C 3,7 C 11,3 km/h (2 Bft) 98,00 %
12.11.2016 00:28 4,1 C 96 % 1018,3 hPa 0,0 l/m 7,6 km/h (2 Bft) W 263 0 min 0,000 mm 0,0 UV-I 0 W/m 3,5 C 3,0 C 14,5 km/h (3 Bft) 97,87 %
12.11.2016 00:30 4,0 C 96 % 1018,3 hPa 0,0 l/m 9,0 km/h (2 Bft) W-SW 254 0 min 0,000 mm 0,0 UV-I 0 W/m 3,4 C 1,7 C 14,5 km/h (3 Bft) 100,00 %
12.11.2016 00:32 4,0 C 96 % 1018,3 hPa 0,0 l/m 7,4 km/h (2 Bft) W 262 0 min 0,000 mm 0,0 UV-I 0 W/m 3,4 C 3,1 C 11,3 km/h (2 Bft) 100,00 %
12.11.2016 00:34 4,0 C 96 % 1018,3 hPa 0,0 l/m 7,4 km/h (2 Bft) W-SW 257 0 min 0,000 mm 0,0 UV-I 0 W/m 3,4 C 3,1 C 11,3 km/h (2 Bft) 100,00 %
12.11.2016 00:36 4,0 C 96 % 1018,4 hPa 0,0 l/m 7,2 km/h (2 Bft) W 259 0 min 0,000 mm 0,0 UV-I 0 W/m 3,4 C 3,3 C 12,9 km/h (3 Bft) 100,00 %
12.11.2016 00:38 4,0 C 96 % 1018,4 hPa 0,0 l/m 10,8 km/h (2 Bft) W 277 0 min 0,000 mm 0,0 UV-I 0 W/m 3,4 C 0,4 C 14,5 km/h (3 Bft) 97,87 %
12.11.2016 00:40 4,1 C 97 % 1018,5 hPa 0,0 l/m 10,9 km/h (2 Bft) W-SW 253 0 min 0,000 mm 0,0 UV-I 0 W/m 3,7 C 0,4 C 17,7 km/h (3 Bft) 97,87 %
12.11.2016 00:42 4,1 C 96 % 1018,4 hPa 0,0 l/m 14,0 km/h (3 Bft) W-SW 246 0 min 0,000 mm 0,0 UV-I 0 W/m 3,5 C -1,5 C 20,9 km/h (4 Bft) 100,00 %
12.11.2016 00:44 4,0 C 96 % 1018,5 hPa 0,0 l/m 17,2 km/h (3 Bft) W-SW 246 0 min 0,000 mm 0,0 UV-I 0 W/m 3,4 C -3,2 C 25,7 km/h (4 Bft) 100,00 %
12.11.2016 00:46 3,9 C 96 % 1018,4 hPa 0,0 l/m 16,1 km/h (3 Bft) W-SW 242 0 min 0,000 mm 0,0 UV-I 0 W/m 3,3 C -2,8 C 24,1 km/h (4 Bft) 95,74 %
12.11.2016 00:48 3,9 C 96 % 1018,5 hPa 0,0 l/m 15,0 km/h (3 Bft) W-SW 248 0 min 0,000 mm 0,0 UV-I 0 W/m 3,3 C -2,3 C 24,1 km/h (4 Bft) 100,00 %
12.11.2016 00:50 3,8 C 96 % 1018,5 hPa 0,2 l/m 17,2 km/h (3 Bft) W-NW 292 0 min 0,000 mm 0,0 UV-I 0 W/m 3,2 C -3,5 C 27,4 km/h (4 Bft) 98,00 %
12.11.2016 00:52 3,7 C 96 % 1018,4 hPa 0,0 l/m 14,7 km/h (3 Bft) W-SW 254 0 min 0,000 mm 0,0 UV-I 0 W/m 3,1 C -2,3 C 20,9 km/h (4 Bft) 100,00 %
12.11.2016 00:54 3,6 C 95 % 1018,5 hPa 0,0 l/m 14,3 km/h (3 Bft) W 275 0 min 0,000 mm 0,0 UV-I 0 W/m 2,9 C -2,2 C 22,5 km/h (4 Bft) 100,00 %
12.11.2016 00:56 3,6 C 95 % 1018,5 hPa 0,0 l/m 12,3 km/h (3 Bft) W-SW 246 0 min 0,000 mm 0,0 UV-I 0 W/m 2,9 C -1,0 C 17,7 km/h (3 Bft) 100,00 %
12.11.2016 00:58 3,5 C 95 % 1018,5 hPa 0,0 l/m 11,1 km/h (2 Bft) W-SW 245 0 min 0,000 mm 0,0 UV-I 0 W/m 2,8 C -0,4 C 20,9 km/h (4 Bft) 100,00 %
12.11.2016 01:00 3,4 C 95 % 1018,5 hPa 0,2 l/m 12,2 km/h (2 Bft) W 271 0 min 0,000 mm 0,0 UV-I 0 W/m 2,7 C -1,2 C 19,3 km/h (3 Bft) 95,74 %
12.11.2016 01:02 3,4 C 95 % 1018,5 hPa 0,0 l/m 9,8 km/h (2 Bft) W-SW 252 0 min 0,000 mm 0,0 UV-I 0 W/m 2,7 C 0,5 C 17,7 km/h (3 Bft) 97,37 %
12.11.2016 01:04 3,3 C 95 % 1018,5 hPa 0,0 l/m 12,1 km/h (2 Bft) W-SW 254 0 min 0,000 mm 0,0 UV-I 0 W/m 2,6 C -1,3 C 19,3 km/h (3 Bft) 100,00 %
12.11.2016 01:06 3,3 C 95 % 1018,5 hPa 0,0 l/m 10,3 km/h (2 Bft) W-SW 253 0 min 0,000 mm 0,0 UV-I 0 W/m 2,6 C -0,0 C 16,1 km/h (3 Bft) 96,00 %
12.11.2016 01:08 3,3 C 95 % 1018,5 hPa 0,0 l/m 10,7 km/h (2 Bft) W-SW 241 0 min 0,000 mm 0,0 UV-I 0 W/m 2,6 C -0,3 C 14,5 km/h (3 Bft) 98,00 %
12.11.2016 01:10 3,3 C 95 % 1018,5 hPa 0,0 l/m 11,1 km/h (2 Bft) W 261 0 min 0,000 mm 0,0 UV-I 0 W/m 2,6 C -0,6 C 19,3 km/h (3 Bft) 97,87 %
12.11.2016 01:12 3,3 C 95 % 1018,5 hPa 0,0 l/m 12,7 km/h (3 Bft) W 271 0 min 0,000 mm 0,0 UV-I 0 W/m 2,6 C -1,6 C 19,3 km/h (3 Bft) 97,37 %
12.11.2016 01:14 3,3 C 95 % 1018,6 hPa 0,2 l/m 12,2 km/h (2 Bft) W-SW 245 0 min 0,000 mm 0,0 UV-I 0 W/m 2,6 C -1,3 C 17,7 km/h (3 Bft) 95,74 %
12.11.2016 01:16 3,3 C 95 % 1018,6 hPa 0,0 l/m 7,9 km/h (2 Bft) W-SW 245 0 min 0,000 mm 0,0 UV-I 0 W/m 2,6 C 1,9 C 11,3 km/h (2 Bft) 97,87 %
12.11.2016 01:18 3,2 C 95 % 1018,6 hPa 0,0 l/m 11,2 km/h (2 Bft) W-NW 301 0 min 0,000 mm 0,0 UV-I 0 W/m 2,5 C -0,8 C 17,7 km/h (3 Bft) 97,87 %
12.11.2016 01:20 3,2 C 96 % 1018,6 hPa 0,0 l/m 10,7 km/h (2 Bft) W-SW 257 0 min 0,000 mm 0,0 UV-I 0 W/m 2,6 C -0,4 C 19,3 km/h (3 Bft) 97,87 %
12.11.2016 01:22 3,2 C 96 % 1018,6 hPa 0,0 l/m 16,7 km/h (3 Bft) W-SW 258 0 min 0,000 mm 0,0 UV-I 0 W/m 2,6 C -4,0 C 22,5 km/h (4 Bft) 94,00 %
12.11.2016 01:24 3,2 C 95 % 1018,7 hPa 0,0 l/m 9,4 km/h (2 Bft) W-SW 257 0 min 0,000 mm 0,0 UV-I 0 W/m 2,5 C 0,5 C 17,7 km/h (3 Bft) 97,87 %
12.11.2016 01:26 3,2 C 95 % 1018,7 hPa 0,0 l/m 8,9 km/h (2 Bft) SW 222 0 min 0,000 mm 0,0 UV-I 0 W/m 2,5 C 0,9 C 12,9 km/h (3 Bft) 97,92 %
12.11.2016 01:28 3,2 C 95 % 1018,7 hPa 0,0 l/m 9,6 km/h (2 Bft) NW 304 0 min 0,000 mm 0,0 UV-I 0 W/m 2,5 C 0,4 C 17,7 km/h (3 Bft) 97,87 %
12.11.2016 01:30 3,1 C 95 % 1018,6 hPa 0,2 l/m 6,3 km/h (2 Bft) W 273 0 min 0,000 mm 0,0 UV-I 0 W/m 2,4 C 3,1 C 9,7 km/h (2 Bft) 97,87 %
12.11.2016 01:32 3,1 C 95 % 1018,7 hPa 0,0 l/m 6,2 km/h (2 Bft) W 273 0 min 0,000 mm 0,0 UV-I 0 W/m 2,4 C 3,1 C 11,3 km/h (2 Bft) 95,74 %
12.11.2016 01:34 3,1 C 96 % 1018,7 hPa 0,0 l/m 9,3 km/h (2 Bft) W 259 0 min 0,000 mm 0,0 UV-I 0 W/m 2,5 C 0,5 C 14,5 km/h (3 Bft) 97,87 %
12.11.2016 01:36 3,1 C 95 % 1018,7 hPa 0,0 l/m 8,9 km/h (2 Bft) W 267 0 min 0,000 mm 0,0 UV-I 0 W/m 2,4 C 0,8 C 14,5 km/h (3 Bft) 95,74 %
12.11.2016 01:38 3,0 C 95 % 1018,7 hPa 0,0 l/m 7,8 km/h (2 Bft) W 264 0 min 0,000 mm 0,0 UV-I 0 W/m 2,3 C 1,7 C 14,5 km/h (3 Bft) 97,87 %
12.11.2016 01:40 3,0 C 95 % 1018,7 hPa 0,2 l/m 6,0 km/h (2 Bft) W 265 0 min 0,000 mm 0,0 UV-I 0 W/m 2,3 C 3,0 C 11,3 km/h (2 Bft) 95,74 %
12.11.2016 01:42 2,9 C 96 % 1018,7 hPa 0,0 l/m 9,6 km/h (2 Bft) W 261 0 min 0,000 mm 0,0 UV-I 0 W/m 2,3 C 0,1 C 14,5 km/h (3 Bft) 100,00 %
12.11.2016 01:44 2,9 C 96 % 1018,8 hPa 0,2 l/m 7,6 km/h (2 Bft) W-NW 290 0 min 0,000 mm 0,0 UV-I 0 W/m 2,3 C 1,8 C 12,9 km/h (3 Bft) 100,00 %
12.11.2016 01:46 2,9 C 96 % 1018,8 hPa 0,0 l/m 5,8 km/h (2 Bft) W-NW 300 0 min 0,000 mm 0,0 UV-I 0 W/m 2,3 C 2,9 C 12,9 km/h (3 Bft) 97,87 %
12.11.2016 01:48 2,9 C 96 % 1018,8 hPa 0,0 l/m 8,5 km/h (2 Bft) W-SW 256 0 min 0,000 mm 0,0 UV-I 0 W/m 2,3 C 1,0 C 12,9 km/h (3 Bft) 100,00 %
12.11.2016 01:50 2,9 C 96 % 1018,9 hPa 0,0 l/m 7,8 km/h (2 Bft) W-SW 247 0 min 0,000 mm 0,0 UV-I 0 W/m 2,3 C 1,6 C 12,9 km/h (3 Bft) 100,00 %
12.11.2016 01:52 2,8 C 96 % 1018,9 hPa 0,2 l/m 6,9 km/h (2 Bft) W 261 0 min 0,000 mm 0,0 UV-I 0 W/m 2,2 C 2,3 C 11,3 km/h (2 Bft) 100,00 %
12.11.2016 01:54 2,8 C 96 % 1018,9 hPa 0,0 l/m 7,0 km/h (2 Bft) W 261 0 min 0,000 mm 0,0 UV-I 0 W/m 2,2 C 2,2 C 12,9 km/h (3 Bft) 100,00 %
12.11.2016 01:56 2,8 C 96 % 1018,9 hPa 0,0 l/m 6,1 km/h (2 Bft) W-SW 244 0 min 0,000 mm 0,0 UV-I 0 W/m 2,2 C 2,8 C 11,3 km/h (2 Bft) 97,87 %
12.11.2016 01:58 2,8 C 96 % 1018,9 hPa 0,2 l/m 8,8 km/h (2 Bft) W 264 0 min 0,000 mm 0,0 UV-I 0 W/m 2,2 C 0,6 C 12,9 km/h (3 Bft) 100,00 %
12.11.2016 02:00 2,8 C 96 % 1018,9 hPa 0,0 l/m 9,5 km/h (2 Bft) W 260 0 min 0,000 mm 0,0 UV-I 0 W/m 2,2 C 0,0 C 14,5 km/h (3 Bft) 100,00 %
12.11.2016 02:02 2,8 C 96 % 1018,9 hPa 0,0 l/m 9,2 km/h (2 Bft) W 278 0 min 0,000 mm 0,0 UV-I 0 W/m 2,2 C 0,3 C 14,5 km/h (3 Bft) 100,00 %
12.11.2016 02:04 2,8 C 96 % 1019,0 hPa 0,0 l/m 12,0 km/h (2 Bft) W-SW 254 0 min 0,000 mm 0,0 UV-I 0 W/m 2,2 C -1,8 C 16,1 km/h (3 Bft) 97,92 %
12.11.2016 02:06 2,8 C 96 % 1019,0 hPa 0,0 l/m 10,6 km/h (2 Bft) W-SW 257 0 min 0,000 mm 0,0 UV-I 0 W/m 2,2 C -0,8 C 17,7 km/h (3 Bft) 100,00 %
12.11.2016 02:08 2,7 C 96 % 1019,0 hPa 0,2 l/m 15,1 km/h (3 Bft) W-SW 248 0 min 0,000 mm 0,0 UV-I 0 W/m 2,1 C -3,8 C 20,9 km/h (4 Bft) 100,00 %
12.11.2016 02:10 2,7 C 96 % 1019,0 hPa 0,0 l/m 11,6 km/h (2 Bft) W-SW 251 0 min 0,000 mm 0,0 UV-I 0 W/m 2,1 C -1,6 C 16,1 km/h (3 Bft) 100,00 %
12.11.2016 02:12 2,7 C 96 % 1019,0 hPa 0,0 l/m 10,8 km/h (2 Bft) W 268 0 min 0,000 mm 0,0 UV-I 0 W/m 2,1 C -1,1 C 16,1 km/h (3 Bft) 100,00 %
12.11.2016 02:14 2,7 C 96 % 1019,1 hPa 0,0 l/m 11,6 km/h (2 Bft) SW 233 0 min 0,000 mm 0,0 UV-I 0 W/m 2,1 C -1,6 C 17,7 km/h (3 Bft) 100,00 %
12.11.2016 02:16 2,7 C 96 % 1019,0 hPa 0,0 l/m 11,5 km/h (2 Bft) W 267 0 min 0,000 mm 0,0 UV-I 0 W/m 2,1 C -1,6 C 20,9 km/h (4 Bft) 100,00 %
12.11.2016 02:18 2,7 C 96 % 1019,1 hPa 0,0 l/m 9,8 km/h (2 Bft) W 261 0 min 0,000 mm 0,0 UV-I 0 W/m 2,1 C -0,3 C 17,7 km/h (3 Bft) 100,00 %
12.11.2016 02:20 2,7 C 96 % 1019,1 hPa 0,0 l/m 12,2 km/h (2 Bft) SW 224 0 min 0,000 mm 0,0 UV-I 0 W/m 2,1 C -2,0 C 22,5 km/h (4 Bft) 100,00 %
12.11.2016 02:22 2,7 C 96 % 1019,1 hPa 0,0 l/m 15,1 km/h (3 Bft) W 265 0 min 0,000 mm 0,0 UV-I 0 W/m 2,1 C -3,8 C 20,9 km/h (4 Bft) 100,00 %
12.11.2016 02:24 2,7 C 96 % 1019,1 hPa 0,2 l/m 9,5 km/h (2 Bft) W 261 0 min 0,000 mm 0,0 UV-I 0 W/m 2,1 C -0,1 C 14,5 km/h (3 Bft) 97,87 %
12.11.2016 02:26 2,7 C 96 % 1019,1 hPa 0,0 l/m 10,2 km/h (2 Bft) W 266 0 min 0,000 mm 0,0 UV-I 0 W/m 2,1 C -0,6 C 19,3 km/h (3 Bft) 100,00 %
12.11.2016 02:28 2,6 C 96 % 1019,1 hPa 0,0 l/m 10,6 km/h (2 Bft) W-SW 244 0 min 0,000 mm 0,0 UV-I 0 W/m 2,0 C -1,0 C 16,1 km/h (3 Bft) 100,00 %
12.11.2016 02:30 2,6 C 96 % 1019,1 hPa 0,0 l/m 10,3 km/h (2 Bft) W-SW 241 0 min 0,000 mm 0,0 UV-I 0 W/m 2,0 C -0,8 C 12,9 km/h (3 Bft) 100,00 %
12.11.2016 02:32 2,6 C 96 % 1019,1 hPa 0,0 l/m 11,9 km/h (2 Bft) W-SW 257 0 min 0,000 mm 0,0 UV-I 0 W/m 2,0 C -1,9 C 17,7 km/h (3 Bft) 97,87 %
12.11.2016 02:34 2,6 C 96 % 1019,1 hPa 0,0 l/m 10,2 km/h (2 Bft) W-SW 252 0 min 0,000 mm 0,0 UV-I 0 W/m 2,0 C -0,7 C 17,7 km/h (3 Bft) 100,00 %
12.11.2016 02:36 2,6 C 96 % 1019,1 hPa 0,2 l/m 14,4 km/h (3 Bft) W 271 0 min 0,000 mm 0,0 UV-I 0 W/m 2,0 C -3,5 C 19,3 km/h (3 Bft) 100,00 %
12.11.2016 02:38 2,6 C 96 % 1019,2 hPa 0,0 l/m 9,4 km/h (2 Bft) W-SW 256 0 min 0,000 mm 0,0 UV-I 0 W/m 2,0 C -0,1 C 12,9 km/h (3 Bft) 95,74 %
12.11.2016 02:40 2,6 C 96 % 1019,2 hPa 0,2 l/m 9,3 km/h (2 Bft) W-SW 256 0 min 0,000 mm 0,0 UV-I 0 W/m 2,0 C -0,0 C 14,5 km/h (3 Bft) 100,00 %
12.11.2016 02:42 2,5 C 96 % 1019,2 hPa 0,0 l/m 9,0 km/h (2 Bft) W-SW 254 0 min 0,000 mm 0,0 UV-I 0 W/m 1,9 C 0,1 C 14,5 km/h (3 Bft) 100,00 %
12.11.2016 02:44 2,6 C 96 % 1019,2 hPa 0,0 l/m 7,1 km/h (2 Bft) W-SW 253 0 min 0,000 mm 0,0 UV-I 0 W/m 2,0 C 1,9 C 11,3 km/h (2 Bft) 100,00 %
12.11.2016 02:46 2,5 C 96 % 1019,2 hPa 0,0 l/m 11,6 km/h (2 Bft) W 262 0 min 0,000 mm 0,0 UV-I 0 W/m 1,9 C -1,9 C 22,5 km/h (4 Bft) 94,00 %
12.11.2016 02:48 2,5 C 96 % 1019,2 hPa 0,2 l/m 10,2 km/h (2 Bft) W 281 0 min 0,000 mm 0,0 UV-I 0 W/m 1,9 C -0,8 C 16,1 km/h (3 Bft) 96,00 %
12.11.2016 02:50 2,5 C 96 % 1019,2 hPa 0,0 l/m 10,9 km/h (2 Bft) W-SW 252 0 min 0,000 mm 0,0 UV-I 0 W/m 1,9 C -1,4 C 16,1 km/h (3 Bft) 100,00 %
12.11.2016 02:52 2,5 C 96 % 1019,1 hPa 0,0 l/m 11,3 km/h (2 Bft) W 262 0 min 0,000 mm 0,0 UV-I 0 W/m 1,9 C -1,6 C 16,1 km/h (3 Bft) 100,00 %
12.11.2016 02:54 2,5 C 96 % 1019,1 hPa 0,2 l/m 12,4 km/h (3 Bft) W 266 0 min 0,000 mm 0,0 UV-I 0 W/m 1,9 C -2,4 C 17,7 km/h (3 Bft) 100,00 %
12.11.2016 02:56 2,4 C 96 % 1019,1 hPa 0,0 l/m 13,4 km/h (3 Bft) W 263 0 min 0,000 mm 0,0 UV-I 0 W/m 1,8 C -3,1 C 19,3 km/h (3 Bft) 100,00 %
12.11.2016 02:58 2,5 C 97 % 1019,1 hPa 0,0 l/m 8,7 km/h (2 Bft) W 261 0 min 0,000 mm 0,0 UV-I 0 W/m 2,1 C 0,4 C 14,5 km/h (3 Bft) 100,00 %
12.11.2016 03:00 2,5 C 97 % 1019,1 hPa 0,0 l/m 7,2 km/h (2 Bft) W 269 0 min 0,000 mm 0,0 UV-I 0 W/m 2,1 C 1,7 C 12,9 km/h (3 Bft) 100,00 %
12.11.2016 03:02 2,5 C 97 % 1019,1 hPa 0,0 l/m 9,4 km/h (2 Bft) W 261 0 min 0,000 mm 0,0 UV-I 0 W/m 2,1 C -0,2 C 14,5 km/h (3 Bft) 98,00 %
12.11.2016 03:04 2,5 C 96 % 1019,0 hPa 0,2 l/m 9,0 km/h (2 Bft) W 277 0 min 0,000 mm 0,0 UV-I 0 W/m 1,9 C 0,1 C 12,9 km/h (3 Bft) 100,00 %
12.11.2016 03:06 2,5 C 96 % 1019,0 hPa 0,0 l/m 8,9 km/h (2 Bft) W-SW 252 0 min 0,000 mm 0,0 UV-I 0 W/m 1,9 C 0,2 C 14,5 km/h (3 Bft) 97,37 %
12.11.2016 03:08 2,5 C 97 % 1019,0 hPa 0,0 l/m 6,6 km/h (2 Bft) SW 236 0 min 0,000 mm 0,0 UV-I 0 W/m 2,1 C 2,3 C 9,7 km/h (2 Bft) 95,74 %
12.11.2016 03:10 2,5 C 97 % 1019,0 hPa 0,0 l/m 6,2 km/h (2 Bft) W 270 0 min 0,000 mm 0,0 UV-I 0 W/m 2,1 C 2,5 C 12,9 km/h (3 Bft) 97,87 %
12.11.2016 03:12 2,5 C 97 % 1019,0 hPa 0,0 l/m 6,4 km/h (2 Bft) W-SW 246 0 min 0,000 mm 0,0 UV-I 0 W/m 2,1 C 2,5 C 12,9 km/h (3 Bft) 95,74 %
12.11.2016 03:14 2,5 C 97 % 1019,0 hPa 0,2 l/m 7,8 km/h (2 Bft) W 265 0 min 0,000 mm 0,0 UV-I 0 W/m 2,1 C 1,2 C 11,3 km/h (2 Bft) 98,00 %
12.11.2016 03:16 2,5 C 97 % 1019,0 hPa 0,0 l/m 8,1 km/h (2 Bft) W-SW 249 0 min 0,000 mm 0,0 UV-I 0 W/m 2,1 C 0,9 C 12,9 km/h (3 Bft) 95,74 %
12.11.2016 03:18 2,5 C 97 % 1019,0 hPa 0,0 l/m 7,4 km/h (2 Bft) W 270 0 min 0,000 mm 0,0 UV-I 0 W/m 2,1 C 1,5 C 11,3 km/h (2 Bft) 97,87 %
12.11.2016 03:20 2,5 C 97 % 1019,0 hPa 0,0 l/m 5,4 km/h (1 Bft) W-SW 256 0 min 0,000 mm 0,0 UV-I 0 W/m 2,1 C 2,5 C 8,0 km/h (2 Bft) 97,87 %
12.11.2016 03:22 2,5 C 97 % 1019,1 hPa 0,0 l/m 4,7 km/h (1 Bft) W-SW 258 0 min 0,000 mm 0,0 UV-I 0 W/m 2,1 C 2,5 C 6,4 km/h (2 Bft) 97,87 %
12.11.2016 03:24 2,5 C 97 % 1019,1 hPa 0,0 l/m 9,5 km/h (2 Bft) W 278 0 min 0,000 mm 0,0 UV-I 0 W/m 2,1 C -0,3 C 14,5 km/h (3 Bft) 94,00 %
12.11.2016 03:26 2,5 C 97 % 1019,1 hPa 0,0 l/m 8,5 km/h (2 Bft) W 263 0 min 0,000 mm 0,0 UV-I 0 W/m 2,1 C 0,5 C 14,5 km/h (3 Bft) 95,74 %
12.11.2016 03:28 2,5 C 97 % 1019,1 hPa 0,0 l/m 6,2 km/h (2 Bft) S-SW 212 0 min 0,000 mm 0,0 UV-I 0 W/m 2,1 C 2,5 C 12,9 km/h (3 Bft) 94,44 %
12.11.2016 03:30 2,5 C 97 % 1019,2 hPa 0,0 l/m 7,3 km/h (2 Bft) W-SW 251 0 min 0,000 mm 0,0 UV-I 0 W/m 2,1 C 1,6 C 11,3 km/h (2 Bft) 98,04 %
12.11.2016 03:32 2,5 C 97 % 1019,2 hPa 0,0 l/m 8,9 km/h (2 Bft) W-SW 256 0 min 0,000 mm 0,0 UV-I 0 W/m 2,1 C 0,2 C 12,9 km/h (3 Bft) 95,74 %
12.11.2016 03:34 2,6 C 97 % 1019,2 hPa 0,0 l/m 4,5 km/h (1 Bft) W-NW 285 0 min 0,000 mm 0,0 UV-I 0 W/m 2,2 C 2,6 C 8,0 km/h (2 Bft) 97,87 %
12.11.2016 03:36 2,5 C 97 % 1019,2 hPa 0,2 l/m 5,3 km/h (1 Bft) W-SW 254 0 min 0,000 mm 0,0 UV-I 0 W/m 2,1 C 2,5 C 9,7 km/h (2 Bft) 97,87 %
12.11.2016 03:38 2,6 C 97 % 1019,2 hPa 0,0 l/m 5,6 km/h (1 Bft) W-SW 251 0 min 0,000 mm 0,0 UV-I 0 W/m 2,2 C 2,6 C 9,7 km/h (2 Bft) 95,74 %
12.11.2016 03:40 2,6 C 97 % 1019,3 hPa 0,0 l/m 7,2 km/h (2 Bft) W-SW 254 0 min 0,000 mm 0,0 UV-I 0 W/m 2,2 C 1,8 C 11,3 km/h (2 Bft) 95,74 %
12.11.2016 03:42 2,6 C 97 % 1019,3 hPa 0,0 l/m 6,3 km/h (2 Bft) W 265 0 min 0,000 mm 0,0 UV-I 0 W/m 2,2 C 2,6 C 11,3 km/h (2 Bft) 93,62 %
12.11.2016 03:44 2,6 C 97 % 1019,3 hPa 0,0 l/m 7,5 km/h (2 Bft) W-SW 250 0 min 0,000 mm 0,0 UV-I 0 W/m 2,2 C 1,5 C 12,9 km/h (3 Bft) 100,00 %
12.11.2016 03:46 2,6 C 97 % 1019,3 hPa 0,0 l/m 7,0 km/h (2 Bft) W-SW 251 0 min 0,000 mm 0,0 UV-I 0 W/m 2,2 C 2,0 C 11,3 km/h (2 Bft) 100,00 %
12.11.2016 03:48 2,6 C 97 % 1019,3 hPa 0,0 l/m 6,8 km/h (2 Bft) W 271 0 min 0,000 mm 0,0 UV-I 0 W/m 2,2 C 2,2 C 11,3 km/h (2 Bft) 100,00 %
12.11.2016 03:50 2,6 C 97 % 1019,3 hPa 0,0 l/m 7,5 km/h (2 Bft) W 260 0 min 0,000 mm 0,0 UV-I 0 W/m 2,2 C 1,5 C 11,3 km/h (2 Bft) 100,00 %
12.11.2016 03:52 2,6 C 97 % 1019,3 hPa 0,0 l/m 6,5 km/h (2 Bft) W 259 0 min 0,000 mm 0,0 UV-I 0 W/m 2,2 C 2,5 C 11,3 km/h (2 Bft) 97,87 %
12.11.2016 03:54 2,6 C 97 % 1019,3 hPa 0,2 l/m 6,5 km/h (2 Bft) W 264 0 min 0,000 mm 0,0 UV-I 0 W/m 2,2 C 2,5 C 9,7 km/h (2 Bft) 100,00 %
12.11.2016 03:56 2,6 C 97 % 1019,3 hPa 0,0 l/m 5,7 km/h (1 Bft) W-SW 257 0 min 0,000 mm 0,0 UV-I 0 W/m 2,2 C 2,6 C 9,7 km/h (2 Bft) 100,00 %
12.11.2016 03:58 2,6 C 97 % 1019,3 hPa 0,0 l/m 7,3 km/h (2 Bft) W 261 0 min 0,000 mm 0,0 UV-I 0 W/m 2,2 C 1,7 C 11,3 km/h (2 Bft) 100,00 %
12.11.2016 04:00 2,6 C 97 % 1019,3 hPa 0,0 l/m 8,7 km/h (2 Bft) W-SW 254 0 min 0,000 mm 0,0 UV-I 0 W/m 2,2 C 0,5 C 12,9 km/h (3 Bft) 100,00 %
12.11.2016 04:02 2,6 C 97 % 1019,4 hPa 0,0 l/m 6,0 km/h (2 Bft) W-SW 245 0 min 0,000 mm 0,0 UV-I 0 W/m 2,2 C 2,6 C 9,7 km/h (2 Bft) 100,00 %
12.11.2016 04:04 2,6 C 97 % 1019,4 hPa 0,0 l/m 6,2 km/h (2 Bft) W 274 0 min 0,000 mm 0,0 UV-I 0 W/m 2,2 C 2,6 C 11,3 km/h (2 Bft) 100,00 %
12.11.2016 04:06 2,6 C 97 % 1019,4 hPa 0,0 l/m 4,1 km/h (1 Bft) W 262 0 min 0,000 mm 0,0 UV-I 0 W/m 2,2 C 2,6 C 6,4 km/h (2 Bft) 97,92 %
12.11.2016 04:08 2,6 C 97 % 1019,4 hPa 0,0 l/m 5,8 km/h (2 Bft) W-SW 254 0 min 0,000 mm 0,0 UV-I 0 W/m 2,2 C 2,6 C 11,3 km/h (2 Bft) 100,00 %
12.11.2016 04:10 2,6 C 97 % 1019,4 hPa 0,0 l/m 6,4 km/h (2 Bft) W 259 0 min 0,000 mm 0,0 UV-I 0 W/m 2,2 C 2,6 C 11,3 km/h (2 Bft) 100,00 %
12.11.2016 04:12 2,6 C 97 % 1019,4 hPa 0,0 l/m 5,7 km/h (1 Bft) W-SW 256 0 min 0,000 mm 0,0 UV-I 0 W/m 2,2 C 2,6 C 8,0 km/h (2 Bft) 100,00 %
12.11.2016 04:14 2,6 C 97 % 1019,4 hPa 0,0 l/m 6,8 km/h (2 Bft) W-SW 250 0 min 0,000 mm 0,0 UV-I 0 W/m 2,2 C 2,2 C 11,3 km/h (2 Bft) 97,87 %
12.11.2016 04:16 2,6 C 97 % 1019,5 hPa 0,0 l/m 5,2 km/h (1 Bft) W-SW 246 0 min 0,000 mm 0,0 UV-I 0 W/m 2,2 C 2,6 C 8,0 km/h (2 Bft) 100,00 %
12.11.2016 04:18 2,6 C 97 % 1019,5 hPa 0,0 l/m 6,1 km/h (2 Bft) W-SW 248 0 min 0,000 mm 0,0 UV-I 0 W/m 2,2 C 2,6 C 9,7 km/h (2 Bft) 100,00 %
12.11.2016 04:20 2,6 C 97 % 1019,5 hPa 0,0 l/m 5,7 km/h (1 Bft) W-NW 284 0 min 0,000 mm 0,0 UV-I 0 W/m 2,2 C 2,6 C 9,7 km/h (2 Bft) 100,00 %
12.11.2016 04:22 2,7 C 97 % 1019,5 hPa 0,0 l/m 4,7 km/h (1 Bft) W 259 0 min 0,000 mm 0,0 UV-I 0 W/m 2,3 C 2,7 C 6,4 km/h (2 Bft) 95,74 %
12.11.2016 04:24 2,7 C 97 % 1019,6 hPa 0,0 l/m 4,7 km/h (1 Bft) W 263 0 min 0,000 mm 0,0 UV-I 0 W/m 2,3 C 2,7 C 6,4 km/h (2 Bft) 97,87 %
12.11.2016 04:26 2,7 C 97 % 1019,6 hPa 0,2 l/m 4,5 km/h (1 Bft) W 275 0 min 0,000 mm 0,0 UV-I 0 W/m 2,3 C 2,7 C 6,4 km/h (2 Bft) 100,00 %
12.11.2016 04:28 2,7 C 97 % 1019,6 hPa 0,0 l/m 3,7 km/h (1 Bft) W 266 0 min 0,000 mm 0,0 UV-I 0 W/m 2,3 C 2,7 C 6,4 km/h (2 Bft) 100,00 %
12.11.2016 04:30 2,7 C 97 % 1019,6 hPa 0,0 l/m 4,1 km/h (1 Bft) W 265 0 min 0,000 mm 0,0 UV-I 0 W/m 2,3 C 2,7 C 8,0 km/h (2 Bft) 100,00 %
12.11.2016 04:32 2,7 C 97 % 1019,6 hPa 0,0 l/m 3,4 km/h (1 Bft) W 269 0 min 0,000 mm 0,0 UV-I 0 W/m 2,3 C 2,7 C 4,8 km/h (1 Bft) 95,74 %
12.11.2016 04:34 2,7 C 97 % 1019,7 hPa 0,0 l/m 3,0 km/h (1 Bft) W 268 0 min 0,000 mm 0,0 UV-I 0 W/m 2,3 C 2,7 C 4,8 km/h (1 Bft) 97,87 %
12.11.2016 04:36 2,7 C 98 % 1019,7 hPa 0,0 l/m 4,2 km/h (1 Bft) W-SW 252 0 min 0,000 mm 0,0 UV-I 0 W/m 2,4 C 2,7 C 6,4 km/h (2 Bft) 100,00 %
12.11.2016 04:38 2,7 C 97 % 1019,7 hPa 0,0 l/m 3,9 km/h (1 Bft) W-SW 253 0 min 0,000 mm 0,0 UV-I 0 W/m 2,3 C 2,7 C 6,4 km/h (2 Bft) 97,87 %
12.11.2016 04:40 2,7 C 97 % 1019,7 hPa 0,2 l/m 4,1 km/h (1 Bft) W 274 0 min 0,000 mm 0,0 UV-I 0 W/m 2,3 C 2,7 C 8,0 km/h (2 Bft) 100,00 %
12.11.2016 04:42 2,7 C 97 % 1019,7 hPa 0,0 l/m 3,8 km/h (1 Bft) W 274 0 min 0,000 mm 0,0 UV-I 0 W/m 2,3 C 2,7 C 4,8 km/h (1 Bft) 100,00 %
12.11.2016 04:44 2,7 C 97 % 1019,8 hPa 0,0 l/m 3,8 km/h (1 Bft) W-SW 245 0 min 0,000 mm 0,0 UV-I 0 W/m 2,3 C 2,7 C 6,4 km/h (2 Bft) 100,00 %
12.11.2016 04:46 2,7 C 98 % 1019,7 hPa 0,0 l/m 3,4 km/h (1 Bft) SW 236 0 min 0,000 mm 0,0 UV-I 0 W/m 2,4 C 2,7 C 4,8 km/h (1 Bft) 100,00 %
12.11.2016 04:48 2,7 C 97 % 1019,7 hPa 0,0 l/m 3,5 km/h (1 Bft) W-SW 254 0 min 0,000 mm 0,0 UV-I 0 W/m 2,3 C 2,7 C 4,8 km/h (1 Bft) 96,00 %
12.11.2016 04:50 2,7 C 97 % 1019,8 hPa 0,0 l/m 3,8 km/h (1 Bft) W 279 0 min 0,000 mm 0,0 UV-I 0 W/m 2,3 C 2,7 C 6,4 km/h (2 Bft) 100,00 %
12.11.2016 04:52 2,7 C 97 % 1019,8 hPa 0,0 l/m 4,0 km/h (1 Bft) W 274 0 min 0,000 mm 0,0 UV-I 0 W/m 2,3 C 2,7 C 6,4 km/h (2 Bft) 97,87 %
12.11.2016 04:54 2,7 C 97 % 1019,9 hPa 0,2 l/m 3,2 km/h (1 Bft) W-SW 254 0 min 0,000 mm 0,0 UV-I 0 W/m 2,3 C 2,7 C 4,8 km/h (1 Bft) 100,00 %
12.11.2016 04:56 2,7 C 97 % 1019,9 hPa 0,0 l/m 3,8 km/h (1 Bft) W-SW 248 0 min 0,000 mm 0,0 UV-I 0 W/m 2,3 C 2,7 C 4,8 km/h (1 Bft) 97,87 %
12.11.2016 04:58 2,7 C 97 % 1019,9 hPa 0,0 l/m 3,9 km/h (1 Bft) W-SW 247 0 min 0,000 mm 0,0 UV-I 0 W/m 2,3 C 2,7 C 4,8 km/h (1 Bft) 100,00 %
12.11.2016 05:00 2,6 C 97 % 1019,9 hPa 0,2 l/m 2,4 km/h (1 Bft) W-SW 247 0 min 0,000 mm 0,0 UV-I 0 W/m 2,2 C 2,6 C 3,2 km/h (1 Bft) 97,87 %
12.11.2016 05:02 2,6 C 97 % 1019,9 hPa 0,0 l/m 2,1 km/h (1 Bft) W-SW 247 0 min 0,000 mm 0,0 UV-I 0 W/m 2,2 C 2,6 C 3,2 km/h (1 Bft) 97,87 %
12.11.2016 05:04 2,7 C 97 % 1019,9 hPa 0,0 l/m 4,8 km/h (1 Bft) W 263 0 min 0,000 mm 0,0 UV-I 0 W/m 2,3 C 2,7 C 11,3 km/h (2 Bft) 100,00 %
12.11.2016 05:06 2,7 C 98 % 1020,0 hPa 0,0 l/m 4,1 km/h (1 Bft) W 267 0 min 0,000 mm 0,0 UV-I 0 W/m 2,4 C 2,7 C 6,4 km/h (2 Bft) 100,00 %
12.11.2016 05:08 2,7 C 98 % 1020,0 hPa 0,0 l/m 3,7 km/h (1 Bft) W-SW 249 0 min 0,000 mm 0,0 UV-I 0 W/m 2,4 C 2,7 C 6,4 km/h (2 Bft) 100,00 %
12.11.2016 05:10 2,7 C 98 % 1020,0 hPa 0,0 l/m 1,3 km/h (1 Bft) W-SW 249 0 min 0,000 mm 0,0 UV-I 0 W/m 2,4 C 2,7 C 3,2 km/h (1 Bft) 95,74 %
12.11.2016 05:12 2,7 C 98 % 1020,0 hPa 0,0 l/m 1,5 km/h (1 Bft) W-SW 249 0 min 0,000 mm 0,0 UV-I 0 W/m 2,4 C 2,7 C 3,2 km/h (1 Bft) 97,87 %
12.11.2016 05:14 2,7 C 98 % 1020,0 hPa 0,0 l/m 1,9 km/h (1 Bft) W-SW 249 0 min 0,000 mm 0,0 UV-I 0 W/m 2,4 C 2,7 C 4,8 km/h (1 Bft) 98,00 %
12.11.2016 05:16 2,7 C 98 % 1020,0 hPa 0,2 l/m 4,0 km/h (1 Bft) W 267 0 min 0,000 mm 0,0 UV-I 0 W/m 2,4 C 2,7 C 6,4 km/h (2 Bft) 97,56 %
12.11.2016 05:18 2,6 C 98 % 1020,0 hPa 0,0 l/m 4,0 km/h (1 Bft) W 279 0 min 0,000 mm 0,0 UV-I 0 W/m 2,3 C 2,6 C 9,7 km/h (2 Bft) 98,00 %
12.11.2016 05:20 2,6 C 98 % 1020,1 hPa 0,0 l/m 3,5 km/h (1 Bft) NW 317 0 min 0,000 mm 0,0 UV-I 0 W/m 2,3 C 2,6 C 6,4 km/h (2 Bft) 96,00 %
12.11.2016 05:22 2,5 C 98 % 1020,1 hPa 0,0 l/m 1,4 km/h (1 Bft) NW 316 0 min 0,000 mm 0,0 UV-I 0 W/m 2,2 C 2,5 C 3,2 km/h (1 Bft) 95,74 %
12.11.2016 05:24 2,5 C 98 % 1020,1 hPa 0,2 l/m 3,1 km/h (1 Bft) N-NW 331 0 min 0,000 mm 0,0 UV-I 0 W/m 2,2 C 2,5 C 9,7 km/h (2 Bft) 95,74 %
12.11.2016 05:26 2,4 C 98 % 1020,1 hPa 0,0 l/m 2,7 km/h (1 Bft) W-NW 284 0 min 0,000 mm 0,0 UV-I 0 W/m 2,1 C 2,4 C 6,4 km/h (2 Bft) 95,74 %
12.11.2016 05:28 2,4 C 97 % 1020,1 hPa 0,0 l/m 2,7 km/h (1 Bft) NW 315 0 min 0,000 mm 0,0 UV-I 0 W/m 2,0 C 2,4 C 6,4 km/h (2 Bft) 97,92 %
12.11.2016 05:30 2,3 C 97 % 1020,1 hPa 0,0 l/m 2,8 km/h (1 Bft) NW 323 0 min 0,000 mm 0,0 UV-I 0 W/m 1,9 C 2,3 C 11,3 km/h (2 Bft) 97,87 %
12.11.2016 05:32 2,3 C 97 % 1020,1 hPa 0,0 l/m 1,1 km/h (1 Bft) NW 316 0 min 0,000 mm 0,0 UV-I 0 W/m 1,9 C 2,3 C 3,2 km/h (1 Bft) 97,14 %
12.11.2016 05:34 2,2 C 97 % 1020,2 hPa 0,2 l/m 3,9 km/h (1 Bft) NW 315 0 min 0,000 mm 0,0 UV-I 0 W/m 1,8 C 2,2 C 9,7 km/h (2 Bft) 93,62 %
12.11.2016 05:36 2,1 C 97 % 1020,2 hPa 0,0 l/m 3,1 km/h (1 Bft) NW 317 0 min 0,000 mm 0,0 UV-I 0 W/m 1,7 C 2,1 C 11,3 km/h (2 Bft) 96,00 %
12.11.2016 05:38 2,1 C 97 % 1020,1 hPa 0,0 l/m 2,4 km/h (1 Bft) W 273 0 min 0,000 mm 0,0 UV-I 0 W/m 1,7 C 2,1 C 4,8 km/h (1 Bft) 97,87 %
12.11.2016 05:40 2,0 C 97 % 1020,2 hPa 0,0 l/m 2,3 km/h (1 Bft) NW 317 0 min 0,000 mm 0,0 UV-I 0 W/m 1,6 C 2,0 C 6,4 km/h (2 Bft) 97,87 %
12.11.2016 05:42 1,9 C 97 % 1020,2 hPa 0,0 l/m 2,5 km/h (1 Bft) NW 311 0 min 0,000 mm 0,0 UV-I 0 W/m 1,5 C 1,9 C 4,8 km/h (1 Bft) 98,00 %
12.11.2016 05:44 1,9 C 97 % 1020,3 hPa 0,2 l/m 1,4 km/h (1 Bft) NW 309 0 min 0,000 mm 0,0 UV-I 0 W/m 1,5 C 1,9 C 4,8 km/h (1 Bft) 98,04 %
12.11.2016 05:46 1,9 C 97 % 1020,3 hPa 0,0 l/m 0,9 km/h (0 Bft) NW 310 0 min 0,000 mm 0,0 UV-I 0 W/m 1,5 C 1,9 C 3,2 km/h (1 Bft) 97,87 %
12.11.2016 05:48 1,9 C 97 % 1020,4 hPa 0,0 l/m 1,7 km/h (1 Bft) W-NW 296 0 min 0,000 mm 0,0 UV-I 0 W/m 1,5 C 1,9 C 4,8 km/h (1 Bft) 100,00 %
12.11.2016 05:50 1,9 C 97 % 1020,3 hPa 0,0 l/m 3,3 km/h (1 Bft) NW 309 0 min 0,000 mm 0,0 UV-I 0 W/m 1,5 C 1,9 C 6,4 km/h (2 Bft) 100,00 %
12.11.2016 05:52 1,8 C 97 % 1020,4 hPa 0,0 l/m 2,7 km/h (1 Bft) NW 306 0 min 0,000 mm 0,0 UV-I 0 W/m 1,4 C 1,8 C 6,4 km/h (2 Bft) 97,87 %
12.11.2016 05:54 1,7 C 97 % 1020,4 hPa 0,2 l/m 1,0 km/h (0 Bft) NW 306 0 min 0,000 mm 0,0 UV-I 0 W/m 1,3 C 1,7 C 3,2 km/h (1 Bft) 100,00 %
12.11.2016 05:56 1,7 C 97 % 1020,5 hPa 0,0 l/m 3,4 km/h (1 Bft) N-NW 343 0 min 0,000 mm 0,0 UV-I 0 W/m 1,3 C 1,7 C 6,4 km/h (2 Bft) 98,36 %
12.11.2016 05:58 1,6 C 97 % 1020,5 hPa 0,0 l/m 1,2 km/h (1 Bft) N-NW 339 0 min 0,000 mm 0,0 UV-I 0 W/m 1,2 C 1,6 C 3,2 km/h (1 Bft) 100,00 %
12.11.2016 06:00 1,6 C 97 % 1020,5 hPa 0,2 l/m 2,4 km/h (1 Bft) N-NW 333 0 min 0,000 mm 0,0 UV-I 0 W/m 1,2 C 1,6 C 6,4 km/h (2 Bft) 100,00 %
12.11.2016 06:02 1,6 C 97 % 1020,5 hPa 0,0 l/m 3,4 km/h (1 Bft) NW 304 0 min 0,000 mm 0,0 UV-I 0 W/m 1,2 C 1,6 C 4,8 km/h (1 Bft) 100,00 %
12.11.2016 06:04 1,5 C 97 % 1020,6 hPa 0,0 l/m 2,5 km/h (1 Bft) NW 321 0 min 0,000 mm 0,0 UV-I 0 W/m 1,1 C 1,5 C 6,4 km/h (2 Bft) 100,00 %
12.11.2016 06:06 1,4 C 97 % 1020,6 hPa 0,0 l/m 2,4 km/h (1 Bft) NW 316 0 min 0,000 mm 0,0 UV-I 0 W/m 1,0 C 1,4 C 4,8 km/h (1 Bft) 100,00 %
12.11.2016 06:08 1,4 C 97 % 1020,6 hPa 0,0 l/m 0,9 km/h (0 Bft) NW 316 0 min 0,000 mm 0,0 UV-I 0 W/m 1,0 C 1,4 C 3,2 km/h (1 Bft) 95,74 %
12.11.2016 06:10 1,3 C 97 % 1020,6 hPa 0,2 l/m 0,8 km/h (0 Bft) NW 317 0 min 0,000 mm 0,0 UV-I 0 W/m 0,9 C 1,3 C 3,2 km/h (1 Bft) 100,00 %
12.11.2016 06:12 1,3 C 97 % 1020,6 hPa 0,0 l/m 1,5 km/h (1 Bft) NW 323 0 min 0,000 mm 0,0 UV-I 0 W/m 0,9 C 1,3 C 3,2 km/h (1 Bft) 97,87 %
12.11.2016 06:14 1,2 C 97 % 1020,6 hPa 0,0 l/m 0,4 km/h (0 Bft) NW 323 0 min 0,000 mm 0,0 UV-I 0 W/m 0,8 C 1,2 C 1,6 km/h (1 Bft) 96,00 %
12.11.2016 06:16 1,2 C 97 % 1020,6 hPa 0,0 l/m 2,7 km/h (1 Bft) NW 304 0 min 0,000 mm 0,0 UV-I 0 W/m 0,8 C 1,2 C 4,8 km/h (1 Bft) 100,00 %
12.11.2016 06:18 1,1 C 97 % 1020,6 hPa 0,0 l/m 2,2 km/h (1 Bft) NW 308 0 min 0,000 mm 0,0 UV-I 0 W/m 0,7 C 1,1 C 6,4 km/h (2 Bft) 100,00 %
12.11.2016 06:20 1,1 C 97 % 1020,6 hPa 0,0 l/m 1,9 km/h (1 Bft) W-NW 300 0 min 0,000 mm 0,0 UV-I 0 W/m 0,7 C 1,1 C 4,8 km/h (1 Bft) 100,00 %
12.11.2016 06:22 1,0 C 97 % 1020,7 hPa 0,0 l/m 2,1 km/h (1 Bft) N-NW 330 0 min 0,000 mm 0,0 UV-I 0 W/m 0,6 C 1,0 C 6,4 km/h (2 Bft) 100,00 %
12.11.2016 06:24 0,9 C 97 % 1020,7 hPa 0,0 l/m 0,7 km/h (0 Bft) N-NW 330 0 min 0,000 mm 0,0 UV-I 0 W/m 0,5 C 0,9 C 1,6 km/h (1 Bft) 97,87 %
12.11.2016 06:26 0,9 C 97 % 1020,7 hPa 0,0 l/m 0,1 km/h (0 Bft) N-NW 330 0 min 0,000 mm 0,0 UV-I 0 W/m 0,5 C 0,9 C 1,6 km/h (1 Bft) 93,62 %
12.11.2016 06:28 0,8 C 97 % 1020,7 hPa 0,0 l/m 1,0 km/h (0 Bft) N-NW 329 0 min 0,000 mm 0,0 UV-I 0 W/m 0,4 C 0,8 C 3,2 km/h (1 Bft) 100,00 %
12.11.2016 06:30 0,8 C 97 % 1020,8 hPa 0,0 l/m 1,7 km/h (1 Bft) NW 307 0 min 0,000 mm 0,0 UV-I 0 W/m 0,4 C 0,8 C 3,2 km/h (1 Bft) 98,00 %
12.11.2016 06:32 0,8 C 97 % 1020,8 hPa 0,0 l/m 1,1 km/h (1 Bft) NW 307 0 min 0,000 mm 0,0 UV-I 0 W/m 0,4 C 0,8 C 3,2 km/h (1 Bft) 97,87 %
12.11.2016 06:34 0,7 C 97 % 1020,8 hPa 0,0 l/m 1,6 km/h (1 Bft) NW 318 0 min 0,000 mm 0,0 UV-I 0 W/m 0,3 C 0,7 C 3,2 km/h (1 Bft) 100,00 %
12.11.2016 06:36 0,7 C 97 % 1020,8 hPa 0,0 l/m 2,0 km/h (1 Bft) NW 308 0 min 0,000 mm 0,0 UV-I 0 W/m 0,3 C 0,7 C 3,2 km/h (1 Bft) 98,00 %
12.11.2016 06:38 0,7 C 97 % 1020,8 hPa 0,0 l/m 0,8 km/h (0 Bft) NW 308 0 min 0,000 mm 0,0 UV-I 0 W/m 0,3 C 0,7 C 1,6 km/h (1 Bft) 100,00 %
12.11.2016 06:40 0,7 C 97 % 1020,9 hPa 0,0 l/m 1,1 km/h (1 Bft) NW 316 0 min 0,000 mm 0,0 UV-I 0 W/m 0,3 C 0,7 C 3,2 km/h (1 Bft) 100,00 %
12.11.2016 06:42 0,7 C 97 % 1020,9 hPa 0,0 l/m 1,7 km/h (1 Bft) NW 319 0 min 0,000 mm 0,0 UV-I 0 W/m 0,3 C 0,7 C 4,8 km/h (1 Bft) 100,00 %
12.11.2016 06:44 0,6 C 97 % 1020,9 hPa 0,0 l/m 0,7 km/h (0 Bft) NW 319 0 min 0,000 mm 0,0 UV-I 0 W/m 0,2 C 0,6 C 1,6 km/h (1 Bft) 98,00 %
12.11.2016 06:46 0,6 C 97 % 1020,9 hPa 0,0 l/m 0,9 km/h (0 Bft) NW 319 0 min 0,000 mm 0,0 UV-I 0 W/m 0,2 C 0,6 C 3,2 km/h (1 Bft) 97,87 %
12.11.2016 06:48 0,6 C 97 % 1021,0 hPa 0,0 l/m 0,7 km/h (0 Bft) NW 312 0 min 0,000 mm 0,0 UV-I 0 W/m 0,2 C 0,6 C 3,2 km/h (1 Bft) 100,00 %
12.11.2016 06:50 0,6 C 97 % 1021,0 hPa 0,0 l/m 0,7 km/h (0 Bft) NW 318 0 min 0,000 mm 0,0 UV-I 0 W/m 0,2 C 0,6 C 3,2 km/h (1 Bft) 100,00 %
12.11.2016 06:52 0,5 C 97 % 1021,0 hPa 0,0 l/m 0,9 km/h (0 Bft) NW 318 0 min 0,000 mm 0,0 UV-I 0 W/m 0,1 C 0,5 C 1,6 km/h (1 Bft) 98,00 %
12.11.2016 06:54 0,5 C 97 % 1021,1 hPa 0,0 l/m 0,7 km/h (0 Bft) NW 318 0 min 0,000 mm 0,0 UV-I 0 W/m 0,1 C 0,5 C 1,6 km/h (1 Bft) 97,87 %
12.11.2016 06:56 0,5 C 97 % 1021,1 hPa 0,0 l/m 0,5 km/h (0 Bft) NW 318 0 min 0,000 mm 0,0 UV-I 0 W/m 0,1 C 0,5 C 1,6 km/h (1 Bft) 100,00 %
12.11.2016 06:58 0,4 C 97 % 1021,1 hPa 0,0 l/m 0,2 km/h (0 Bft) NW 318 0 min 0,000 mm 0,0 UV-I 0 W/m -0,0 C 0,4 C 1,6 km/h (1 Bft) 100,00 %
12.11.2016 07:00 0,4 C 97 % 1021,1 hPa 0,0 l/m 0,3 km/h (0 Bft) NW 318 0 min 0,000 mm 0,0 UV-I 0 W/m -0,0 C 0,4 C 1,6 km/h (1 Bft) 97,87 %
12.11.2016 07:02 0,4 C 97 % 1021,2 hPa 0,0 l/m 1,0 km/h (0 Bft) NW 318 0 min 0,000 mm 0,0 UV-I 0 W/m -0,0 C 0,4 C 3,2 km/h (1 Bft) 95,74 %
12.11.2016 07:04 0,4 C 98 % 1021,2 hPa 0,0 l/m 1,3 km/h (1 Bft) NW 313 0 min 0,000 mm 0,0 UV-I 0 W/m 0,1 C 0,4 C 3,2 km/h (1 Bft) 100,00 %
12.11.2016 07:06 0,4 C 98 % 1021,2 hPa 0,0 l/m 0,2 km/h (0 Bft) NW 313 0 min 0,000 mm 0,0 UV-I 0 W/m 0,1 C 0,4 C 1,6 km/h (1 Bft) 100,00 %
12.11.2016 07:08 0,4 C 98 % 1021,2 hPa 0,0 l/m 0,7 km/h (0 Bft) NW 313 0 min 0,000 mm 0,0 UV-I 0 W/m 0,1 C 0,4 C 1,6 km/h (1 Bft) 97,87 %
12.11.2016 07:10 0,4 C 98 % 1021,2 hPa 0,0 l/m 0,4 km/h (0 Bft) NW 313 0 min 0,000 mm 0,0 UV-I 0 W/m 0,1 C 0,4 C 1,6 km/h (1 Bft) 100,00 %
12.11.2016 07:12 0,4 C 98 % 1021,3 hPa 0,0 l/m 0,0 km/h (0 Bft) NW 313 0 min 0,000 mm 0,0 UV-I 0 W/m 0,1 C 0,4 C 0,0 km/h (0 Bft) 100,00 %
12.11.2016 07:14 0,5 C 98 % 1021,3 hPa 0,0 l/m 0,0 km/h (0 Bft) NW 313 0 min 0,000 mm 0,0 UV-I 0 W/m 0,2 C 0,5 C 1,6 km/h (1 Bft) 97,87 %
12.11.2016 07:16 0,5 C 98 % 1021,3 hPa 0,0 l/m 0,0 km/h (0 Bft) NW 313 0 min 0,000 mm 0,0 UV-I 0 W/m 0,2 C 0,5 C 0,0 km/h (0 Bft) 100,00 %
12.11.2016 07:18 0,4 C 98 % 1021,3 hPa 0,0 l/m 0,0 km/h (0 Bft) NW 313 0 min 0,000 mm 0,0 UV-I 0 W/m 0,1 C 0,4 C 0,0 km/h (0 Bft) 95,74 %
12.11.2016 07:20 0,5 C 98 % 1021,3 hPa 0,0 l/m 0,0 km/h (0 Bft) NW 313 0 min 0,000 mm 0,0 UV-I 0 W/m 0,2 C 0,5 C 0,0 km/h (0 Bft) 97,87 %
12.11.2016 07:22 0,4 C 98 % 1021,4 hPa 0,0 l/m 0,0 km/h (0 Bft) NW 313 0 min 0,000 mm 0,0 UV-I 2 W/m 0,1 C 0,4 C 0,0 km/h (0 Bft) 95,74 %
12.11.2016 07:24 0,4 C 98 % 1021,3 hPa 0,0 l/m 0,0 km/h (0 Bft) NW 313 0 min 0,000 mm 0,0 UV-I 5 W/m 0,1 C 0,4 C 0,0 km/h (0 Bft) 95,74 %
12.11.2016 07:26 0,4 C 98 % 1021,4 hPa 0,0 l/m 0,6 km/h (0 Bft) NW 313 0 min 0,000 mm 0,0 UV-I 5 W/m 0,1 C 0,4 C 1,6 km/h (1 Bft) 97,92 %
12.11.2016 07:28 0,4 C 98 % 1021,4 hPa 0,0 l/m 0,0 km/h (0 Bft) NW 313 0 min 0,000 mm 0,0 UV-I 5 W/m 0,1 C 0,4 C 1,6 km/h (1 Bft) 97,14 %
12.11.2016 07:30 0,4 C 98 % 1021,4 hPa 0,0 l/m 0,0 km/h (0 Bft) NW 313 0 min 0,000 mm 0,0 UV-I 5 W/m 0,1 C 0,4 C 1,6 km/h (1 Bft) 97,87 %
12.11.2016 07:32 0,4 C 98 % 1021,4 hPa 0,0 l/m 0,5 km/h (0 Bft) NW 313 0 min 0,000 mm 0,0 UV-I 5 W/m 0,1 C 0,4 C 1,6 km/h (1 Bft) 97,92 %
12.11.2016 07:34 0,4 C 98 % 1021,5 hPa 0,0 l/m 1,1 km/h (1 Bft) NW 313 0 min 0,000 mm 0,0 UV-I 5 W/m 0,1 C 0,4 C 3,2 km/h (1 Bft) 97,87 %
12.11.2016 07:36 0,4 C 98 % 1021,5 hPa 0,0 l/m 0,8 km/h (0 Bft) NW 313 0 min 0,000 mm 0,0 UV-I 5 W/m 0,1 C 0,4 C 1,6 km/h (1 Bft) 95,74 %
12.11.2016 07:38 0,4 C 98 % 1021,5 hPa 0,0 l/m 0,4 km/h (0 Bft) NW 313 0 min 0,000 mm 0,0 UV-I 5 W/m 0,1 C 0,4 C 1,6 km/h (1 Bft) 97,87 %
12.11.2016 07:40 0,4 C 98 % 1021,5 hPa 0,0 l/m 1,0 km/h (0 Bft) NW 313 0 min 0,000 mm 0,0 UV-I 5 W/m 0,1 C 0,4 C 3,2 km/h (1 Bft) 95,74 %
12.11.2016 07:42 0,4 C 98 % 1021,5 hPa 0,0 l/m 1,1 km/h (1 Bft) NW 313 0 min 0,000 mm 0,0 UV-I 5 W/m 0,1 C 0,4 C 3,2 km/h (1 Bft) 97,87 %
12.11.2016 07:44 0,4 C 98 % 1021,5 hPa 0,0 l/m 0,9 km/h (0 Bft) NW 313 0 min 0,000 mm 0,0 UV-I 6 W/m 0,1 C 0,4 C 1,6 km/h (1 Bft) 97,87 %
12.11.2016 07:46 0,4 C 98 % 1021,6 hPa 0,0 l/m 1,4 km/h (1 Bft) NW 313 0 min 0,000 mm 0,0 UV-I 7 W/m 0,1 C 0,4 C 3,2 km/h (1 Bft) 95,74 %
12.11.2016 07:48 0,4 C 98 % 1021,6 hPa 0,0 l/m 1,5 km/h (1 Bft) NW 313 0 min 0,000 mm 0,0 UV-I 7 W/m 0,1 C 0,4 C 3,2 km/h (1 Bft) 97,87 %
12.11.2016 07:50 0,4 C 98 % 1021,6 hPa 0,0 l/m 1,4 km/h (1 Bft) NW 313 0 min 0,000 mm 0,0 UV-I 7 W/m 0,1 C 0,4 C 3,2 km/h (1 Bft) 97,92 %
12.11.2016 07:52 0,4 C 98 % 1021,7 hPa 0,0 l/m 1,5 km/h (1 Bft) NW 313 0 min 0,000 mm 0,0 UV-I 7 W/m 0,1 C 0,4 C 3,2 km/h (1 Bft) 97,87 %
12.11.2016 07:54 0,4 C 98 % 1021,7 hPa 0,0 l/m 1,4 km/h (1 Bft) NW 313 0 min 0,000 mm 0,0 UV-I 7 W/m 0,1 C 0,4 C 3,2 km/h (1 Bft) 100,00 %
12.11.2016 07:56 0,4 C 98 % 1021,7 hPa 0,0 l/m 1,5 km/h (1 Bft) NW 313 0 min 0,000 mm 0,0 UV-I 7 W/m 0,1 C 0,4 C 3,2 km/h (1 Bft) 100,00 %
12.11.2016 07:58 0,4 C 98 % 1021,7 hPa 0,0 l/m 1,1 km/h (1 Bft) NW 313 0 min 0,000 mm 0,0 UV-I 7 W/m 0,1 C 0,4 C 3,2 km/h (1 Bft) 97,22 %
12.11.2016 08:00 0,4 C 98 % 1021,7 hPa 0,0 l/m 1,0 km/h (0 Bft) NW 313 0 min 0,000 mm 0,0 UV-I 7 W/m 0,1 C 0,4 C 1,6 km/h (1 Bft) 100,00 %
12.11.2016 08:02 0,4 C 98 % 1021,8 hPa 0,0 l/m 0,2 km/h (0 Bft) NW 313 0 min 0,000 mm 0,0 UV-I 8 W/m 0,1 C 0,4 C 1,6 km/h (1 Bft) 97,87 %
12.11.2016 08:04 0,4 C 98 % 1021,8 hPa 0,0 l/m 0,9 km/h (0 Bft) NW 313 0 min 0,000 mm 0,0 UV-I 9 W/m 0,1 C 0,4 C 3,2 km/h (1 Bft) 100,00 %
12.11.2016 08:06 0,4 C 98 % 1021,8 hPa 0,0 l/m 0,3 km/h (0 Bft) NW 313 0 min 0,000 mm 0,0 UV-I 9 W/m 0,1 C 0,4 C 1,6 km/h (1 Bft) 100,00 %
12.11.2016 08:08 0,4 C 98 % 1021,9 hPa 0,0 l/m 0,2 km/h (0 Bft) NW 313 0 min 0,000 mm 0,0 UV-I 9 W/m 0,1 C 0,4 C 1,6 km/h (1 Bft) 100,00 %
12.11.2016 08:10 0,4 C 98 % 1021,8 hPa 0,0 l/m 0,5 km/h (0 Bft) NW 313 0 min 0,000 mm 0,0 UV-I 9 W/m 0,1 C 0,4 C 1,6 km/h (1 Bft) 97,87 %
12.11.2016 08:12 0,4 C 98 % 1021,9 hPa 0,0 l/m 1,1 km/h (1 Bft) NW 313 0 min 0,000 mm 0,0 UV-I 9 W/m 0,1 C 0,4 C 1,6 km/h (1 Bft) 97,87 %
12.11.2016 08:14 0,4 C 98 % 1021,9 hPa 0,0 l/m 0,8 km/h (0 Bft) NW 313 0 min 0,000 mm 0,0 UV-I 11 W/m 0,1 C 0,4 C 1,6 km/h (1 Bft) 100,00 %
12.11.2016 08:16 0,4 C 98 % 1021,9 hPa 0,0 l/m 0,3 km/h (0 Bft) NW 313 0 min 0,000 mm 0,0 UV-I 11 W/m 0,1 C 0,4 C 1,6 km/h (1 Bft) 100,00 %
12.11.2016 08:18 0,4 C 98 % 1021,9 hPa 0,0 l/m 0,6 km/h (0 Bft) NW 313 0 min 0,000 mm 0,0 UV-I 11 W/m 0,1 C 0,4 C 1,6 km/h (1 Bft) 95,74 %
12.11.2016 08:20 0,4 C 98 % 1021,9 hPa 0,0 l/m 0,8 km/h (0 Bft) NW 313 0 min 0,000 mm 0,0 UV-I 12 W/m 0,1 C 0,4 C 3,2 km/h (1 Bft) 100,00 %
12.11.2016 08:22 0,4 C 98 % 1021,9 hPa 0,0 l/m 2,2 km/h (1 Bft) NW 313 0 min 0,000 mm 0,0 UV-I 11 W/m 0,1 C 0,4 C 3,2 km/h (1 Bft) 97,87 %
12.11.2016 08:24 0,4 C 98 % 1021,9 hPa 0,0 l/m 2,4 km/h (1 Bft) NW 311 0 min 0,000 mm 0,0 UV-I 11 W/m 0,1 C 0,4 C 4,8 km/h (1 Bft) 100,00 %
12.11.2016 08:26 0,4 C 98 % 1021,9 hPa 0,0 l/m 2,0 km/h (1 Bft) NW 311 0 min 0,000 mm 0,0 UV-I 11 W/m 0,1 C 0,4 C 3,2 km/h (1 Bft) 97,87 %
12.11.2016 08:28 0,5 C 98 % 1021,9 hPa 0,0 l/m 2,0 km/h (1 Bft) NW 311 0 min 0,000 mm 0,0 UV-I 10 W/m 0,2 C 0,5 C 3,2 km/h (1 Bft) 100,00 %
12.11.2016 08:30 0,5 C 98 % 1022,0 hPa 0,0 l/m 2,4 km/h (1 Bft) NW 311 0 min 0,000 mm 0,0 UV-I 11 W/m 0,2 C 0,5 C 3,2 km/h (1 Bft) 100,00 %
12.11.2016 08:32 0,6 C 98 % 1022,0 hPa 0,0 l/m 2,8 km/h (1 Bft) W-SW 238 0 min 0,000 mm 0,0 UV-I 11 W/m 0,3 C 0,6 C 4,8 km/h (1 Bft) 97,87 %
12.11.2016 08:34 0,6 C 98 % 1022,0 hPa 0,0 l/m 2,3 km/h (1 Bft) W-SW 238 0 min 0,000 mm 0,0 UV-I 11 W/m 0,3 C 0,6 C 3,2 km/h (1 Bft) 100,00 %
12.11.2016 08:36 0,5 C 98 % 1022,0 hPa 0,0 l/m 3,1 km/h (1 Bft) W-SW 238 0 min 0,000 mm 0,0 UV-I 11 W/m 0,2 C 0,5 C 4,8 km/h (1 Bft) 95,74 %
12.11.2016 08:38 0,6 C 98 % 1022,0 hPa 0,0 l/m 2,5 km/h (1 Bft) W-SW 238 0 min 0,000 mm 0,0 UV-I 11 W/m 0,3 C 0,6 C 3,2 km/h (1 Bft) 100,00 %
12.11.2016 08:40 0,6 C 98 % 1022,0 hPa 0,0 l/m 2,2 km/h (1 Bft) W-SW 238 0 min 0,000 mm 0,0 UV-I 11 W/m 0,3 C 0,6 C 4,8 km/h (1 Bft) 97,87 %
12.11.2016 08:42 0,5 C 98 % 1022,0 hPa 0,0 l/m 3,0 km/h (1 Bft) W-SW 238 0 min 0,000 mm 0,0 UV-I 11 W/m 0,2 C 0,5 C 4,8 km/h (1 Bft) 97,92 %
12.11.2016 08:44 0,6 C 98 % 1022,0 hPa 0,0 l/m 2,8 km/h (1 Bft) W-SW 238 0 min 0,000 mm 0,0 UV-I 11 W/m 0,3 C 0,6 C 4,8 km/h (1 Bft) 95,74 %
12.11.2016 08:46 0,6 C 98 % 1022,0 hPa 0,0 l/m 3,1 km/h (1 Bft) W-SW 238 0 min 0,000 mm 0,0 UV-I 11 W/m 0,3 C 0,6 C 4,8 km/h (1 Bft) 100,00 %
12.11.2016 08:48 0,6 C 98 % 1022,0 hPa 0,0 l/m 3,2 km/h (1 Bft) W-SW 238 0 min 0,000 mm 0,0 UV-I 12 W/m 0,3 C 0,6 C 4,8 km/h (1 Bft) 100,00 %
12.11.2016 08:50 0,6 C 98 % 1022,1 hPa 0,0 l/m 3,0 km/h (1 Bft) W-SW 238 0 min 0,000 mm 0,0 UV-I 12 W/m 0,3 C 0,6 C 4,8 km/h (1 Bft) 97,87 %
12.11.2016 08:52 0,6 C 98 % 1022,1 hPa 0,0 l/m 2,5 km/h (1 Bft) W-SW 238 0 min 0,000 mm 0,0 UV-I 12 W/m 0,3 C 0,6 C 3,2 km/h (1 Bft) 97,87 %
12.11.2016 08:54 0,6 C 98 % 1022,1 hPa 0,0 l/m 2,6 km/h (1 Bft) W-SW 238 0 min 0,000 mm 0,0 UV-I 12 W/m 0,3 C 0,6 C 3,2 km/h (1 Bft) 100,00 %
12.11.2016 08:56 0,6 C 98 % 1022,1 hPa 0,0 l/m 2,7 km/h (1 Bft) SW 236 0 min 0,000 mm 0,0 UV-I 13 W/m 0,3 C 0,6 C 6,4 km/h (2 Bft) 100,00 %
12.11.2016 08:58 0,6 C 98 % 1022,2 hPa 0,0 l/m 3,3 km/h (1 Bft) SW 235 0 min 0,000 mm 0,0 UV-I 14 W/m 0,3 C 0,6 C 6,4 km/h (2 Bft) 97,14 %
12.11.2016 09:00 0,7 C 98 % 1022,2 hPa 0,0 l/m 1,6 km/h (1 Bft) SW 235 0 min 0,000 mm 0,0 UV-I 14 W/m 0,4 C 0,7 C 3,2 km/h (1 Bft) 100,00 %
12.11.2016 09:02 0,7 C 98 % 1022,3 hPa 0,0 l/m 2,1 km/h (1 Bft) SW 235 0 min 0,000 mm 0,0 UV-I 14 W/m 0,4 C 0,7 C 4,8 km/h (1 Bft) 100,00 %
12.11.2016 09:04 0,7 C 98 % 1022,3 hPa 0,0 l/m 3,3 km/h (1 Bft) SW 235 0 min 0,000 mm 0,0 UV-I 14 W/m 0,4 C 0,7 C 4,8 km/h (1 Bft) 100,00 %
12.11.2016 09:06 0,7 C 98 % 1022,3 hPa 0,0 l/m 3,3 km/h (1 Bft) SW 235 0 min 0,000 mm 0,0 UV-I 16 W/m 0,4 C 0,7 C 4,8 km/h (1 Bft) 100,00 %
12.11.2016 09:08 0,7 C 98 % 1022,2 hPa 0,0 l/m 3,0 km/h (1 Bft) SW 235 0 min 0,000 mm 0,0 UV-I 18 W/m 0,4 C 0,7 C 4,8 km/h (1 Bft) 100,00 %
12.11.2016 09:10 0,8 C 98 % 1022,3 hPa 0,0 l/m 3,1 km/h (1 Bft) SW 235 0 min 0,000 mm 0,0 UV-I 19 W/m 0,5 C 0,8 C 4,8 km/h (1 Bft) 97,87 %
12.11.2016 09:12 0,8 C 98 % 1022,4 hPa 0,0 l/m 3,0 km/h (1 Bft) SW 235 0 min 0,000 mm 0,0 UV-I 22 W/m 0,5 C 0,8 C 4,8 km/h (1 Bft) 100,00 %
12.11.2016 09:14 0,8 C 98 % 1022,4 hPa 0,0 l/m 3,2 km/h (1 Bft) W-SW 239 0 min 0,000 mm 0,0 UV-I 23 W/m 0,5 C 0,8 C 4,8 km/h (1 Bft) 96,00 %
12.11.2016 09:16 0,8 C 98 % 1022,4 hPa 0,0 l/m 3,4 km/h (1 Bft) W-SW 239 0 min 0,000 mm 0,0 UV-I 24 W/m 0,5 C 0,8 C 4,8 km/h (1 Bft) 100,00 %
12.11.2016 09:18 0,7 C 98 % 1022,4 hPa 0,0 l/m 3,9 km/h (1 Bft) W-SW 238 0 min 0,000 mm 0,0 UV-I 25 W/m 0,4 C 0,7 C 6,4 km/h (2 Bft) 97,87 %
12.11.2016 09:20 0,7 C 98 % 1022,4 hPa 0,0 l/m 3,1 km/h (1 Bft) W-SW 238 0 min 0,000 mm 0,0 UV-I 24 W/m 0,4 C 0,7 C 6,4 km/h (2 Bft) 97,87 %
12.11.2016 09:22 0,7 C 98 % 1022,4 hPa 0,0 l/m 3,5 km/h (1 Bft) W-SW 238 0 min 0,000 mm 0,0 UV-I 23 W/m 0,4 C 0,7 C 4,8 km/h (1 Bft) 100,00 %
12.11.2016 09:24 0,7 C 98 % 1022,5 hPa 0,0 l/m 3,2 km/h (1 Bft) W-SW 238 0 min 0,000 mm 0,0 UV-I 23 W/m 0,4 C 0,7 C 4,8 km/h (1 Bft) 100,00 %
12.11.2016 09:26 0,7 C 98 % 1022,5 hPa 0,0 l/m 2,0 km/h (1 Bft) W-SW 238 0 min 0,000 mm 0,0 UV-I 21 W/m 0,4 C 0,7 C 3,2 km/h (1 Bft) 95,74 %
12.11.2016 09:28 0,7 C 98 % 1022,5 hPa 0,0 l/m 2,0 km/h (1 Bft) W-SW 238 0 min 0,000 mm 0,0 UV-I 21 W/m 0,4 C 0,7 C 3,2 km/h (1 Bft) 97,87 %
12.11.2016 09:30 0,7 C 98 % 1022,5 hPa 0,0 l/m 2,2 km/h (1 Bft) W-SW 238 0 min 0,000 mm 0,0 UV-I 21 W/m 0,4 C 0,7 C 4,8 km/h (1 Bft) 97,87 %
12.11.2016 09:32 0,7 C 98 % 1022,6 hPa 0,0 l/m 2,8 km/h (1 Bft) W-SW 238 0 min 0,000 mm 0,0 UV-I 21 W/m 0,4 C 0,7 C 4,8 km/h (1 Bft) 97,87 %
12.11.2016 09:34 0,7 C 98 % 1022,5 hPa 0,0 l/m 1,9 km/h (1 Bft) W-SW 238 0 min 0,000 mm 0,0 UV-I 23 W/m 0,4 C 0,7 C 3,2 km/h (1 Bft) 97,37 %
12.11.2016 09:36 0,7 C 98 % 1022,6 hPa 0,0 l/m 1,5 km/h (1 Bft) W-SW 238 0 min 0,000 mm 0,0 UV-I 23 W/m 0,4 C 0,7 C 3,2 km/h (1 Bft) 98,11 %
12.11.2016 09:38 0,7 C 98 % 1022,6 hPa 0,0 l/m 1,5 km/h (1 Bft) W-SW 238 0 min 0,000 mm 0,0 UV-I 25 W/m 0,4 C 0,7 C 3,2 km/h (1 Bft) 97,87 %
12.11.2016 09:40 0,7 C 98 % 1022,5 hPa 0,0 l/m 2,3 km/h (1 Bft) W-SW 238 0 min 0,000 mm 0,0 UV-I 25 W/m 0,4 C 0,7 C 3,2 km/h (1 Bft) 93,62 %
12.11.2016 09:42 0,7 C 98 % 1022,6 hPa 0,0 l/m 2,7 km/h (1 Bft) W-SW 238 0 min 0,000 mm 0,0 UV-I 26 W/m 0,4 C 0,7 C 3,2 km/h (1 Bft) 95,74 %
12.11.2016 09:44 0,7 C 98 % 1022,6 hPa 0,0 l/m 2,0 km/h (1 Bft) W-SW 238 0 min 0,000 mm 0,0 UV-I 26 W/m 0,4 C 0,7 C 3,2 km/h (1 Bft) 95,74 %
12.11.2016 09:46 0,7 C 98 % 1022,6 hPa 0,0 l/m 2,3 km/h (1 Bft) W-SW 238 0 min 0,000 mm 0,0 UV-I 26 W/m 0,4 C 0,7 C 4,8 km/h (1 Bft) 95,74 %
12.11.2016 09:48 0,7 C 98 % 1022,6 hPa 0,0 l/m 2,0 km/h (1 Bft) W-SW 238 0 min 0,000 mm 0,0 UV-I 28 W/m 0,4 C 0,7 C 3,2 km/h (1 Bft) 95,74 %
12.11.2016 09:50 0,7 C 98 % 1022,6 hPa 0,0 l/m 1,8 km/h (1 Bft) W-SW 238 0 min 0,000 mm 0,0 UV-I 28 W/m 0,4 C 0,7 C 3,2 km/h (1 Bft) 97,87 %
12.11.2016 09:52 0,7 C 98 % 1022,6 hPa 0,0 l/m 2,5 km/h (1 Bft) W-SW 238 0 min 0,000 mm 0,0 UV-I 28 W/m 0,4 C 0,7 C 3,2 km/h (1 Bft) 97,37 %
12.11.2016 09:54 0,7 C 98 % 1022,6 hPa 0,0 l/m 1,7 km/h (1 Bft) W-SW 238 0 min 0,000 mm 0,0 UV-I 30 W/m 0,4 C 0,7 C 3,2 km/h (1 Bft) 97,87 %
12.11.2016 09:56 0,8 C 98 % 1022,7 hPa 0,0 l/m 2,0 km/h (1 Bft) W-SW 238 0 min 0,000 mm 0,0 UV-I 32 W/m 0,5 C 0,8 C 3,2 km/h (1 Bft) 98,00 %
12.11.2016 09:58 0,8 C 98 % 1022,7 hPa 0,0 l/m 2,3 km/h (1 Bft) W-SW 238 0 min 0,000 mm 0,0 UV-I 33 W/m 0,5 C 0,8 C 3,2 km/h (1 Bft) 93,62 %
12.11.2016 10:00 0,8 C 98 % 1022,7 hPa 0,0 l/m 2,4 km/h (1 Bft) W-SW 238 0 min 0,000 mm 0,0 UV-I 35 W/m 0,5 C 0,8 C 3,2 km/h (1 Bft) 100,00 %
12.11.2016 10:02 0,8 C 98 % 1022,7 hPa 0,0 l/m 2,4 km/h (1 Bft) W-SW 238 0 min 0,000 mm 0,0 UV-I 38 W/m 0,5 C 0,8 C 3,2 km/h (1 Bft) 95,74 %
12.11.2016 10:04 0,8 C 98 % 1022,7 hPa 0,0 l/m 2,3 km/h (1 Bft) W-SW 238 0 min 0,000 mm 0,0 UV-I 42 W/m 0,5 C 0,8 C 3,2 km/h (1 Bft) 100,00 %
12.11.2016 10:06 0,8 C 98 % 1022,7 hPa 0,0 l/m 2,4 km/h (1 Bft) W-SW 238 0 min 0,000 mm 0,0 UV-I 46 W/m 0,5 C 0,8 C 3,2 km/h (1 Bft) 97,87 %
12.11.2016 10:08 0,9 C 98 % 1022,7 hPa 0,0 l/m 2,7 km/h (1 Bft) W-SW 238 0 min 0,000 mm 0,0 UV-I 51 W/m 0,6 C 0,9 C 4,8 km/h (1 Bft) 93,62 %
12.11.2016 10:10 0,9 C 98 % 1022,7 hPa 0,0 l/m 2,7 km/h (1 Bft) W-SW 238 0 min 0,000 mm 0,0 UV-I 54 W/m 0,6 C 0,9 C 4,8 km/h (1 Bft) 100,00 %
12.11.2016 10:12 0,9 C 98 % 1022,7 hPa 0,0 l/m 3,0 km/h (1 Bft) W-SW 238 0 min 0,000 mm 0,0 UV-I 54 W/m 0,6 C 0,9 C 4,8 km/h (1 Bft) 98,00 %
12.11.2016 10:14 0,9 C 98 % 1022,7 hPa 0,0 l/m 2,1 km/h (1 Bft) W-SW 238 0 min 0,000 mm 0,0 UV-I 57 W/m 0,6 C 0,9 C 3,2 km/h (1 Bft) 97,87 %
12.11.2016 10:16 0,9 C 98 % 1022,8 hPa 0,0 l/m 2,3 km/h (1 Bft) W-SW 238 0 min 0,000 mm 0,0 UV-I 60 W/m 0,6 C 0,9 C 3,2 km/h (1 Bft) 97,87 %
12.11.2016 10:18 0,9 C 98 % 1022,8 hPa 0,0 l/m 3,2 km/h (1 Bft) W 264 0 min 0,000 mm 0,0 UV-I 63 W/m 0,6 C 0,9 C 4,8 km/h (1 Bft) 100,00 %
12.11.2016 10:20 0,9 C 98 % 1022,8 hPa 0,0 l/m 2,5 km/h (1 Bft) W-SW 257 0 min 0,000 mm 0,0 UV-I 63 W/m 0,6 C 0,9 C 4,8 km/h (1 Bft) 100,00 %
12.11.2016 10:22 1,0 C 98 % 1022,8 hPa 0,0 l/m 3,2 km/h (1 Bft) W 265 0 min 0,000 mm 0,0 UV-I 62 W/m 0,7 C 1,0 C 6,4 km/h (2 Bft) 100,00 %
12.11.2016 10:24 1,1 C 98 % 1022,8 hPa 0,0 l/m 3,4 km/h (1 Bft) W 273 0 min 0,000 mm 0,0 UV-I 62 W/m 0,8 C 1,1 C 4,8 km/h (1 Bft) 98,00 %
12.11.2016 10:26 1,1 C 98 % 1022,8 hPa 0,0 l/m 3,8 km/h (1 Bft) W 275 0 min 0,000 mm 0,0 UV-I 62 W/m 0,8 C 1,1 C 4,8 km/h (1 Bft) 100,00 %
12.11.2016 10:28 1,1 C 98 % 1022,8 hPa 0,2 l/m 4,2 km/h (1 Bft) W 263 0 min 0,000 mm 0,0 UV-I 68 W/m 0,8 C 1,1 C 6,4 km/h (2 Bft) 100,00 %
12.11.2016 10:30 1,1 C 98 % 1022,8 hPa 0,0 l/m 5,2 km/h (1 Bft) W-SW 254 0 min 0,000 mm 0,0 UV-I 74 W/m 0,8 C 1,1 C 6,4 km/h (2 Bft) 100,00 %
12.11.2016 10:32 1,1 C 98 % 1022,8 hPa 0,0 l/m 4,3 km/h (1 Bft) W-SW 258 0 min 0,000 mm 0,0 UV-I 76 W/m 0,8 C 1,1 C 6,4 km/h (2 Bft) 100,00 %
12.11.2016 10:34 1,1 C 98 % 1022,8 hPa 0,0 l/m 4,3 km/h (1 Bft) W-SW 252 0 min 0,000 mm 0,0 UV-I 78 W/m 0,8 C 1,1 C 8,0 km/h (2 Bft) 100,00 %
12.11.2016 10:36 1,1 C 98 % 1022,8 hPa 0,0 l/m 4,2 km/h (1 Bft) W-SW 252 0 min 0,000 mm 0,0 UV-I 76 W/m 0,8 C 1,1 C 6,4 km/h (2 Bft) 100,00 %
12.11.2016 10:38 1,1 C 98 % 1022,8 hPa 0,0 l/m 3,7 km/h (1 Bft) W-SW 252 0 min 0,000 mm 0,0 UV-I 71 W/m 0,8 C 1,1 C 6,4 km/h (2 Bft) 100,00 %
12.11.2016 10:40 1,1 C 98 % 1022,8 hPa 0,0 l/m 4,0 km/h (1 Bft) W 270 0 min 0,000 mm 0,0 UV-I 65 W/m 0,8 C 1,1 C 6,4 km/h (2 Bft) 97,87 %
12.11.2016 10:42 1,1 C 98 % 1022,8 hPa 0,0 l/m 3,5 km/h (1 Bft) W 265 0 min 0,000 mm 0,0 UV-I 60 W/m 0,8 C 1,1 C 4,8 km/h (1 Bft) 100,00 %
12.11.2016 10:44 1,1 C 98 % 1022,8 hPa 0,2 l/m 3,9 km/h (1 Bft) W 271 0 min 0,000 mm 0,0 UV-I 63 W/m 0,8 C 1,1 C 6,4 km/h (2 Bft) 95,83 %
12.11.2016 10:46 1,1 C 98 % 1022,8 hPa 0,0 l/m 3,0 km/h (1 Bft) W 272 0 min 0,000 mm 0,0 UV-I 67 W/m 0,8 C 1,1 C 4,8 km/h (1 Bft) 97,87 %
12.11.2016 10:49 1,2 C 98 % 1022,8 hPa 0,0 l/m 2,1 km/h (1 Bft) W 272 0 min 0,000 mm 0,0 UV-I 63 W/m 0,9 C 1,2 C 4,8 km/h (1 Bft) 98,46 %
12.11.2016 10:50 1,2 C 98 % 1022,8 hPa 0,0 l/m 2,0 km/h (1 Bft) W 272 0 min 0,000 mm 0,0 UV-I 64 W/m 0,9 C 1,2 C 3,2 km/h (1 Bft) 100,00 %
12.11.2016 10:52 1,2 C 98 % 1022,8 hPa 0,0 l/m 1,9 km/h (1 Bft) W 272 0 min 0,000 mm 0,0 UV-I 63 W/m 0,9 C 1,2 C 4,8 km/h (1 Bft) 100,00 %
12.11.2016 10:54 1,2 C 98 % 1022,8 hPa 0,0 l/m 2,1 km/h (1 Bft) W 272 0 min 0,000 mm 0,0 UV-I 56 W/m 0,9 C 1,2 C 3,2 km/h (1 Bft) 100,00 %
12.11.2016 10:56 1,2 C 98 % 1022,8 hPa 0,0 l/m 1,7 km/h (1 Bft) W 272 0 min 0,000 mm 0,0 UV-I 51 W/m 0,9 C 1,2 C 3,2 km/h (1 Bft) 95,74 %
12.11.2016 10:58 1,1 C 98 % 1022,8 hPa 0,2 l/m 2,4 km/h (1 Bft) W-NW 284 0 min 0,000 mm 0,0 UV-I 49 W/m 0,8 C 1,1 C 4,8 km/h (1 Bft) 100,00 %
12.11.2016 11:00 1,1 C 98 % 1022,8 hPa 0,0 l/m 2,4 km/h (1 Bft) W-NW 283 0 min 0,025 mm 0,0 UV-I 44 W/m 0,8 C 1,1 C 4,8 km/h (1 Bft) 100,00 %
12.11.2016 11:02 1,1 C 98 % 1022,9 hPa 0,0 l/m 1,0 km/h (0 Bft) W-NW 287 0 min 0,000 mm 0,0 UV-I 36 W/m 0,8 C 1,1 C 3,2 km/h (1 Bft) 93,62 %
12.11.2016 11:04 1,1 C 98 % 1022,9 hPa 0,0 l/m 1,3 km/h (1 Bft) W-NW 287 0 min 0,000 mm 0,0 UV-I 33 W/m 0,8 C 1,1 C 3,2 km/h (1 Bft) 100,00 %
12.11.2016 11:06 1,1 C 98 % 1022,8 hPa 0,0 l/m 0,2 km/h (0 Bft) W-NW 287 0 min 0,000 mm 0,0 UV-I 34 W/m 0,8 C 1,1 C 1,6 km/h (1 Bft) 100,00 %
12.11.2016 11:08 1,1 C 98 % 1022,9 hPa 0,0 l/m 0,1 km/h (0 Bft) W-NW 287 0 min 0,000 mm 0,0 UV-I 35 W/m 0,8 C 1,1 C 1,6 km/h (1 Bft) 100,00 %
12.11.2016 11:10 1,1 C 98 % 1022,9 hPa 0,0 l/m 1,1 km/h (1 Bft) W-NW 287 0 min 0,000 mm 0,0 UV-I 34 W/m 0,8 C 1,1 C 3,2 km/h (1 Bft) 95,74 %
12.11.2016 11:12 1,1 C 98 % 1022,9 hPa 0,0 l/m 0,5 km/h (0 Bft) W-NW 287 0 min 0,000 mm 0,0 UV-I 31 W/m 0,8 C 1,1 C 1,6 km/h (1 Bft) 100,00 %
12.11.2016 11:14 1,2 C 98 % 1022,9 hPa 0,2 l/m 0,5 km/h (0 Bft) W-NW 287 0 min 0,000 mm 0,0 UV-I 27 W/m 0,9 C 1,2 C 3,2 km/h (1 Bft) 100,00 %
12.11.2016 11:16 1,1 C 98 % 1022,9 hPa 0,0 l/m 2,0 km/h (1 Bft) W-NW 283 0 min 0,000 mm 0,0 UV-I 25 W/m 0,8 C 1,1 C 4,8 km/h (1 Bft) 100,00 %
12.11.2016 11:18 1,2 C 98 % 1022,8 hPa 0,0 l/m 1,1 km/h (1 Bft) W-NW 283 0 min 0,000 mm 0,0 UV-I 29 W/m 0,9 C 1,2 C 3,2 km/h (1 Bft) 100,00 %
12.11.2016 11:20 1,2 C 98 % 1022,8 hPa 0,0 l/m 2,2 km/h (1 Bft) W-NW 283 0 min 0,000 mm 0,0 UV-I 33 W/m 0,9 C 1,2 C 4,8 km/h (1 Bft) 100,00 %
12.11.2016 11:22 1,2 C 98 % 1022,8 hPa 0,0 l/m 2,1 km/h (1 Bft) W-NW 288 0 min 0,000 mm 0,0 UV-I 38 W/m 0,9 C 1,2 C 4,8 km/h (1 Bft) 97,87 %
12.11.2016 11:24 1,2 C 98 % 1022,9 hPa 0,0 l/m 2,3 km/h (1 Bft) W-NW 288 0 min 0,000 mm 0,0 UV-I 44 W/m 0,9 C 1,2 C 4,8 km/h (1 Bft) 100,00 %
12.11.2016 11:26 1,2 C 98 % 1022,9 hPa 0,0 l/m 1,1 km/h (1 Bft) W-NW 288 0 min 0,000 mm 0,0 UV-I 46 W/m 0,9 C 1,2 C 1,6 km/h (1 Bft) 97,87 %
12.11.2016 11:28 1,2 C 98 % 1022,8 hPa 0,0 l/m 1,1 km/h (1 Bft) W-NW 288 0 min 0,000 mm 0,0 UV-I 45 W/m 0,9 C 1,2 C 3,2 km/h (1 Bft) 100,00 %
12.11.2016 11:30 1,2 C 98 % 1022,8 hPa 0,0 l/m 0,6 km/h (0 Bft) W-NW 288 0 min 0,000 mm 0,0 UV-I 45 W/m 0,9 C 1,2 C 3,2 km/h (1 Bft) 93,62 %
12.11.2016 11:32 1,2 C 98 % 1022,7 hPa 0,2 l/m 2,6 km/h (1 Bft) W-NW 288 0 min 0,000 mm 0,0 UV-I 46 W/m 0,9 C 1,2 C 4,8 km/h (1 Bft) 93,62 %
12.11.2016 11:34 1,2 C 98 % 1022,7 hPa 0,0 l/m 0,8 km/h (0 Bft) W-NW 288 0 min 0,000 mm 0,0 UV-I 46 W/m 0,9 C 1,2 C 3,2 km/h (1 Bft) 97,87 %
12.11.2016 11:36 1,1 C 98 % 1022,7 hPa 0,0 l/m 1,8 km/h (1 Bft) W 278 0 min 0,000 mm 0,0 UV-I 46 W/m 0,8 C 1,1 C 6,4 km/h (2 Bft) 95,74 %
12.11.2016 11:38 1,1 C 98 % 1022,7 hPa 0,0 l/m 2,0 km/h (1 Bft) W-NW 283 0 min 0,000 mm 0,0 UV-I 48 W/m 0,8 C 1,1 C 3,2 km/h (1 Bft) 97,87 %
12.11.2016 11:40 1,1 C 98 % 1022,7 hPa 0,0 l/m 2,0 km/h (1 Bft) W-NW 284 0 min 0,000 mm 0,0 UV-I 47 W/m 0,8 C 1,1 C 3,2 km/h (1 Bft) 95,74 %
12.11.2016 11:42 1,1 C 98 % 1022,7 hPa 0,0 l/m 2,1 km/h (1 Bft) W-NW 285 0 min 0,000 mm 0,0 UV-I 47 W/m 0,8 C 1,1 C 3,2 km/h (1 Bft) 93,62 %
12.11.2016 11:44 1,1 C 98 % 1022,7 hPa 0,0 l/m 2,2 km/h (1 Bft) W-NW 286 0 min 0,000 mm 0,0 UV-I 47 W/m 0,8 C 1,1 C 4,8 km/h (1 Bft) 97,92 %
12.11.2016 11:46 1,0 C 98 % 1022,7 hPa 0,0 l/m 1,5 km/h (1 Bft) W-NW 286 0 min 0,000 mm 0,0 UV-I 47 W/m 0,7 C 1,0 C 3,2 km/h (1 Bft) 94,00 %
12.11.2016 11:48 1,0 C 98 % 1022,7 hPa 0,0 l/m 2,0 km/h (1 Bft) W 267 0 min 0,000 mm 0,0 UV-I 47 W/m 0,7 C 1,0 C 6,4 km/h (2 Bft) 95,74 %
12.11.2016 11:50 1,0 C 98 % 1022,6 hPa 0,0 l/m 2,7 km/h (1 Bft) W 267 0 min 0,000 mm 0,0 UV-I 49 W/m 0,7 C 1,0 C 4,8 km/h (1 Bft) 98,00 %
12.11.2016 11:52 1,0 C 98 % 1022,6 hPa 0,2 l/m 2,0 km/h (1 Bft) W 267 0 min 0,000 mm 0,0 UV-I 47 W/m 0,7 C 1,0 C 3,2 km/h (1 Bft) 97,87 %
12.11.2016 11:54 1,0 C 98 % 1022,6 hPa 0,0 l/m 4,4 km/h (1 Bft) W 261 0 min 0,000 mm 0,0 UV-I 46 W/m 0,7 C 1,0 C 6,4 km/h (2 Bft) 97,87 %
12.11.2016 11:56 1,0 C 98 % 1022,6 hPa 0,0 l/m 3,3 km/h (1 Bft) W-NW 291 0 min 0,000 mm 0,0 UV-I 47 W/m 0,7 C 1,0 C 6,4 km/h (2 Bft) 95,74 %
12.11.2016 11:58 1,1 C 98 % 1022,6 hPa 0,0 l/m 2,7 km/h (1 Bft) W-NW 284 0 min 0,000 mm 0,0 UV-I 49 W/m 0,8 C 1,1 C 4,8 km/h (1 Bft) 100,00 %
12.11.2016 12:00 1,1 C 98 % 1022,5 hPa 0,0 l/m 3,5 km/h (1 Bft) W 270 0 min 0,026 mm 0,0 UV-I 49 W/m 0,8 C 1,1 C 4,8 km/h (1 Bft) 97,87 %
12.11.2016 12:02 1,1 C 98 % 1022,6 hPa 0,2 l/m 2,8 km/h (1 Bft) W 270 0 min 0,000 mm 0,0 UV-I 49 W/m 0,8 C 1,1 C 6,4 km/h (2 Bft) 93,62 %
12.11.2016 12:04 1,1 C 98 % 1022,5 hPa 0,0 l/m 2,9 km/h (1 Bft) W 273 0 min 0,000 mm 0,0 UV-I 49 W/m 0,8 C 1,1 C 4,8 km/h (1 Bft) 93,62 %
12.11.2016 12:06 1,1 C 98 % 1022,5 hPa 0,0 l/m 4,3 km/h (1 Bft) W 275 0 min 0,000 mm 0,0 UV-I 49 W/m 0,8 C 1,1 C 9,7 km/h (2 Bft) 100,00 %
12.11.2016 12:08 1,1 C 98 % 1022,5 hPa 0,0 l/m 3,9 km/h (1 Bft) W 271 0 min 0,000 mm 0,0 UV-I 48 W/m 0,8 C 1,1 C 4,8 km/h (1 Bft) 87,23 %
12.11.2016 12:10 1,1 C 98 % 1022,6 hPa 0,0 l/m 4,1 km/h (1 Bft) W-NW 286 0 min 0,000 mm 0,0 UV-I 46 W/m 0,8 C 1,1 C 6,4 km/h (2 Bft) 87,23 %
12.11.2016 12:12 1,1 C 98 % 1022,5 hPa 0,0 l/m 2,3 km/h (1 Bft) W-NW 282 0 min 0,000 mm 0,0 UV-I 46 W/m 0,8 C 1,1 C 4,8 km/h (1 Bft) 93,62 %
12.11.2016 12:14 1,1 C 98 % 1022,5 hPa 0,0 l/m 2,5 km/h (1 Bft) W 272 0 min 0,000 mm 0,0 UV-I 46 W/m 0,8 C 1,1 C 4,8 km/h (1 Bft) 87,23 %
12.11.2016 12:16 1,1 C 98 % 1022,5 hPa 0,0 l/m 2,9 km/h (1 Bft) W 272 0 min 0,000 mm 0,0 UV-I 46 W/m 0,8 C 1,1 C 6,4 km/h (2 Bft) 90,00 %
12.11.2016 12:18 1,1 C 98 % 1022,5 hPa 0,0 l/m 3,7 km/h (1 Bft) W-SW 257 0 min 0,000 mm 0,0 UV-I 46 W/m 0,8 C 1,1 C 6,4 km/h (2 Bft) 95,74 %
12.11.2016 12:20 1,1 C 98 % 1022,5 hPa 0,0 l/m 5,5 km/h (1 Bft) W 267 0 min 0,000 mm 0,0 UV-I 47 W/m 0,8 C 1,1 C 12,9 km/h (3 Bft) 95,74 %
12.11.2016 12:22 1,1 C 98 % 1022,5 hPa 0,2 l/m 3,7 km/h (1 Bft) W 269 0 min 0,000 mm 0,0 UV-I 52 W/m 0,8 C 1,1 C 6,4 km/h (2 Bft) 91,49 %
12.11.2016 12:24 1,2 C 98 % 1022,5 hPa 0,0 l/m 4,0 km/h (1 Bft) W 269 0 min 0,000 mm 0,0 UV-I 54 W/m 0,9 C 1,2 C 6,4 km/h (2 Bft) 95,74 %
12.11.2016 12:26 1,2 C 98 % 1022,5 hPa 0,0 l/m 3,7 km/h (1 Bft) W 272 0 min 0,000 mm 0,0 UV-I 56 W/m 0,9 C 1,2 C 6,4 km/h (2 Bft) 100,00 %
12.11.2016 12:28 1,2 C 98 % 1022,4 hPa 0,0 l/m 4,2 km/h (1 Bft) W 274 0 min 0,000 mm 0,0 UV-I 61 W/m 0,9 C 1,2 C 9,7 km/h (2 Bft) 100,00 %
12.11.2016 12:30 1,2 C 98 % 1022,4 hPa 0,0 l/m 5,0 km/h (1 Bft) W 267 0 min 0,000 mm 0,0 UV-I 64 W/m 0,9 C 1,2 C 6,4 km/h (2 Bft) 100,00 %
12.11.2016 12:32 1,2 C 98 % 1022,4 hPa 0,0 l/m 3,9 km/h (1 Bft) W-NW 298 0 min 0,000 mm 0,0 UV-I 68 W/m 0,9 C 1,2 C 6,4 km/h (2 Bft) 100,00 %
12.11.2016 12:34 1,2 C 98 % 1022,4 hPa 0,0 l/m 3,4 km/h (1 Bft) W-NW 287 0 min 0,000 mm 0,0 UV-I 70 W/m 0,9 C 1,2 C 4,8 km/h (1 Bft) 97,87 %
12.11.2016 12:36 1,3 C 98 % 1022,4 hPa 0,2 l/m 4,0 km/h (1 Bft) W 276 0 min 0,000 mm 0,0 UV-I 72 W/m 1,0 C 1,3 C 9,7 km/h (2 Bft) 100,00 %
12.11.2016 12:38 1,3 C 98 % 1022,4 hPa 0,0 l/m 3,4 km/h (1 Bft) W 267 0 min 0,000 mm 0,0 UV-I 74 W/m 1,0 C 1,3 C 4,8 km/h (1 Bft) 100,00 %
12.11.2016 12:40 1,3 C 98 % 1022,4 hPa 0,0 l/m 5,1 km/h (1 Bft) W-NW 284 0 min 0,000 mm 0,0 UV-I 76 W/m 1,0 C 1,3 C 9,7 km/h (2 Bft) 100,00 %
12.11.2016 12:42 1,3 C 98 % 1022,4 hPa 0,0 l/m 2,4 km/h (1 Bft) W 274 0 min 0,000 mm 0,0 UV-I 77 W/m 1,0 C 1,3 C 4,8 km/h (1 Bft) 100,00 %
12.11.2016 12:44 1,3 C 98 % 1022,4 hPa 0,0 l/m 3,8 km/h (1 Bft) W-SW 251 0 min 0,000 mm 0,0 UV-I 77 W/m 1,0 C 1,3 C 6,4 km/h (2 Bft) 100,00 %
12.11.2016 12:46 1,4 C 98 % 1022,4 hPa 0,0 l/m 4,0 km/h (1 Bft) W 260 0 min 0,000 mm 0,0 UV-I 74 W/m 1,1 C 1,4 C 4,8 km/h (1 Bft) 100,00 %
12.11.2016 12:48 1,4 C 98 % 1022,4 hPa 0,0 l/m 6,9 km/h (2 Bft) W 278 0 min 0,000 mm 0,0 UV-I 69 W/m 1,1 C 0,9 C 12,9 km/h (3 Bft) 100,00 %
12.11.2016 12:50 1,3 C 98 % 1022,4 hPa 0,2 l/m 4,5 km/h (1 Bft) W 272 0 min 0,000 mm 0,0 UV-I 65 W/m 1,0 C 1,3 C 9,7 km/h (2 Bft) 100,00 %
12.11.2016 12:52 1,3 C 98 % 1022,5 hPa 0,0 l/m 4,0 km/h (1 Bft) W 267 0 min 0,000 mm 0,0 UV-I 59 W/m 1,0 C 1,3 C 6,4 km/h (2 Bft) 97,92 %
12.11.2016 12:54 1,3 C 98 % 1022,5 hPa 0,0 l/m 4,8 km/h (1 Bft) NW 307 0 min 0,000 mm 0,0 UV-I 54 W/m 1,0 C 1,3 C 9,7 km/h (2 Bft) 100,00 %
12.11.2016 12:56 1,3 C 98 % 1022,5 hPa 0,0 l/m 2,6 km/h (1 Bft) W-NW 291 0 min 0,000 mm 0,0 UV-I 51 W/m 1,0 C 1,3 C 4,8 km/h (1 Bft) 97,87 %
12.11.2016 12:58 1,3 C 98 % 1022,4 hPa 0,0 l/m 4,3 km/h (1 Bft) W-NW 287 0 min 0,000 mm 0,0 UV-I 49 W/m 1,0 C 1,3 C 6,4 km/h (2 Bft) 100,00 %
12.11.2016 13:00 1,3 C 98 % 1022,5 hPa 0,0 l/m 5,6 km/h (1 Bft) W 263 0 min 0,000 mm 0,0 UV-I 49 W/m 1,0 C 1,3 C 8,0 km/h (2 Bft) 100,00 %
12.11.2016 13:02 1,2 C 98 % 1022,4 hPa 0,2 l/m 3,3 km/h (1 Bft) W-SW 256 0 min 0,025 mm 0,0 UV-I 49 W/m 0,9 C 1,2 C 4,8 km/h (1 Bft) 95,74 %
12.11.2016 13:04 1,3 C 98 % 1022,5 hPa 0,0 l/m 3,5 km/h (1 Bft) W 261 0 min 0,000 mm 0,0 UV-I 47 W/m 1,0 C 1,3 C 4,8 km/h (1 Bft) 95,83 %
12.11.2016 13:06 1,3 C 98 % 1022,5 hPa 0,0 l/m 4,3 km/h (1 Bft) W 260 0 min 0,000 mm 0,0 UV-I 44 W/m 1,0 C 1,3 C 4,8 km/h (1 Bft) 100,00 %
12.11.2016 13:08 1,3 C 98 % 1022,5 hPa 0,0 l/m 3,4 km/h (1 Bft) W 277 0 min 0,000 mm 0,0 UV-I 41 W/m 1,0 C 1,3 C 6,4 km/h (2 Bft) 100,00 %
12.11.2016 13:10 1,3 C 98 % 1022,5 hPa 0,0 l/m 3,1 km/h (1 Bft) W 275 0 min 0,000 mm 0,0 UV-I 40 W/m 1,0 C 1,3 C 4,8 km/h (1 Bft) 100,00 %
12.11.2016 13:12 1,3 C 98 % 1022,5 hPa 0,0 l/m 4,0 km/h (1 Bft) W 272 0 min 0,000 mm 0,0 UV-I 40 W/m 1,0 C 1,3 C 6,4 km/h (2 Bft) 100,00 %
12.11.2016 13:14 1,3 C 98 % 1022,5 hPa 0,0 l/m 4,3 km/h (1 Bft) W 276 0 min 0,000 mm 0,0 UV-I 39 W/m 1,0 C 1,3 C 8,0 km/h (2 Bft) 100,00 %
12.11.2016 13:16 1,2 C 98 % 1022,5 hPa 0,0 l/m 3,0 km/h (1 Bft) W 276 0 min 0,000 mm 0,0 UV-I 39 W/m 0,9 C 1,2 C 4,8 km/h (1 Bft) 100,00 %
12.11.2016 13:18 1,2 C 98 % 1022,5 hPa 0,0 l/m 4,3 km/h (1 Bft) W 262 0 min 0,000 mm 0,0 UV-I 36 W/m 0,9 C 1,2 C 6,4 km/h (2 Bft) 100,00 %
12.11.2016 13:20 1,2 C 98 % 1022,6 hPa 0,2 l/m 4,0 km/h (1 Bft) W 262 0 min 0,000 mm 0,0 UV-I 34 W/m 0,9 C 1,2 C 6,4 km/h (2 Bft) 100,00 %
12.11.2016 13:22 1,2 C 98 % 1022,6 hPa 0,0 l/m 4,0 km/h (1 Bft) W 259 0 min 0,000 mm 0,0 UV-I 32 W/m 0,9 C 1,2 C 6,4 km/h (2 Bft) 100,00 %
12.11.2016 13:24 1,2 C 98 % 1022,6 hPa 0,0 l/m 4,4 km/h (1 Bft) W 265 0 min 0,000 mm 0,0 UV-I 31 W/m 0,9 C 1,2 C 6,4 km/h (2 Bft) 100,00 %
12.11.2016 13:26 1,2 C 98 % 1022,6 hPa 0,0 l/m 5,4 km/h (1 Bft) W 268 0 min 0,000 mm 0,0 UV-I 30 W/m 0,9 C 1,2 C 9,7 km/h (2 Bft) 100,00 %
12.11.2016 13:28 1,2 C 98 % 1022,6 hPa 0,0 l/m 4,5 km/h (1 Bft) W 264 0 min 0,000 mm 0,0 UV-I 29 W/m 0,9 C 1,2 C 6,4 km/h (2 Bft) 100,00 %
12.11.2016 13:30 1,2 C 98 % 1022,6 hPa 0,0 l/m 4,3 km/h (1 Bft) W 262 0 min 0,000 mm 0,0 UV-I 28 W/m 0,9 C 1,2 C 9,7 km/h (2 Bft) 97,87 %
12.11.2016 13:32 1,2 C 98 % 1022,6 hPa 0,0 l/m 3,9 km/h (1 Bft) W 261 0 min 0,000 mm 0,0 UV-I 28 W/m 0,9 C 1,2 C 6,4 km/h (2 Bft) 97,87 %
12.11.2016 13:34 1,2 C 98 % 1022,6 hPa 0,0 l/m 5,1 km/h (1 Bft) W 259 0 min 0,000 mm 0,0 UV-I 27 W/m 0,9 C 1,2 C 9,7 km/h (2 Bft) 97,87 %
12.11.2016 13:36 1,2 C 98 % 1022,5 hPa 0,0 l/m 3,3 km/h (1 Bft) W 275 0 min 0,000 mm 0,0 UV-I 26 W/m 0,9 C 1,2 C 4,8 km/h (1 Bft) 97,87 %
12.11.2016 13:38 1,2 C 98 % 1022,6 hPa 0,2 l/m 3,3 km/h (1 Bft) W 270 0 min 0,000 mm 0,0 UV-I 26 W/m 0,9 C 1,2 C 4,8 km/h (1 Bft) 97,87 %
12.11.2016 13:40 1,2 C 98 % 1022,6 hPa 0,0 l/m 3,5 km/h (1 Bft) W 270 0 min 0,000 mm 0,0 UV-I 25 W/m 0,9 C 1,2 C 4,8 km/h (1 Bft) 97,87 %
12.11.2016 13:42 1,2 C 98 % 1022,6 hPa 0,0 l/m 2,4 km/h (1 Bft) W 270 0 min 0,000 mm 0,0 UV-I 25 W/m 0,9 C 1,2 C 3,2 km/h (1 Bft) 93,62 %
12.11.2016 13:44 1,2 C 98 % 1022,6 hPa 0,0 l/m 4,6 km/h (1 Bft) W-SW 257 0 min 0,000 mm 0,0 UV-I 25 W/m 0,9 C 1,2 C 9,7 km/h (2 Bft) 94,44 %
12.11.2016 13:46 1,2 C 98 % 1022,6 hPa 0,0 l/m 4,1 km/h (1 Bft) W-SW 254 0 min 0,000 mm 0,0 UV-I 26 W/m 0,9 C 1,2 C 6,4 km/h (2 Bft) 95,74 %
12.11.2016 13:48 1,2 C 98 % 1022,6 hPa 0,0 l/m 4,6 km/h (1 Bft) W-SW 249 0 min 0,000 mm 0,0 UV-I 26 W/m 0,9 C 1,2 C 9,7 km/h (2 Bft) 97,87 %
12.11.2016 13:50 1,2 C 98 % 1022,6 hPa 0,0 l/m 4,5 km/h (1 Bft) W 274 0 min 0,000 mm 0,0 UV-I 26 W/m 0,9 C 1,2 C 6,4 km/h (2 Bft) 93,62 %
12.11.2016 13:52 1,2 C 98 % 1022,6 hPa 0,0 l/m 5,0 km/h (1 Bft) W 271 0 min 0,000 mm 0,0 UV-I 28 W/m 0,9 C 1,2 C 8,0 km/h (2 Bft) 93,62 %
12.11.2016 13:54 1,2 C 97 % 1022,7 hPa 0,0 l/m 3,2 km/h (1 Bft) W 271 0 min 0,000 mm 0,0 UV-I 27 W/m 0,8 C 1,2 C 4,8 km/h (1 Bft) 97,87 %
12.11.2016 13:56 1,2 C 98 % 1022,7 hPa 0,0 l/m 3,1 km/h (1 Bft) W-SW 253 0 min 0,000 mm 0,0 UV-I 26 W/m 0,9 C 1,2 C 6,4 km/h (2 Bft) 97,87 %
12.11.2016 13:58 1,2 C 98 % 1022,7 hPa 0,0 l/m 2,7 km/h (1 Bft) W-SW 253 0 min 0,000 mm 0,0 UV-I 27 W/m 0,9 C 1,2 C 6,4 km/h (2 Bft) 97,87 %
12.11.2016 14:00 1,2 C 98 % 1022,7 hPa 0,0 l/m 3,2 km/h (1 Bft) W-SW 253 0 min 0,000 mm 0,0 UV-I 28 W/m 0,9 C 1,2 C 4,8 km/h (1 Bft) 97,87 %
12.11.2016 14:02 1,2 C 98 % 1022,7 hPa 0,0 l/m 2,6 km/h (1 Bft) W-SW 253 0 min 0,000 mm 0,0 UV-I 29 W/m 0,9 C 1,2 C 4,8 km/h (1 Bft) 97,87 %
12.11.2016 14:04 1,2 C 98 % 1022,7 hPa 0,0 l/m 2,5 km/h (1 Bft) W-SW 253 0 min 0,000 mm 0,0 UV-I 30 W/m 0,9 C 1,2 C 4,8 km/h (1 Bft) 97,87 %
12.11.2016 14:06 1,3 C 98 % 1022,7 hPa 0,2 l/m 2,4 km/h (1 Bft) W-SW 253 0 min 0,000 mm 0,0 UV-I 27 W/m 1,0 C 1,3 C 4,8 km/h (1 Bft) 97,87 %
12.11.2016 14:08 1,3 C 98 % 1022,7 hPa 0,0 l/m 2,2 km/h (1 Bft) W-SW 253 0 min 0,000 mm 0,0 UV-I 26 W/m 1,0 C 1,3 C 3,2 km/h (1 Bft) 97,87 %
12.11.2016 14:10 1,3 C 98 % 1022,7 hPa 0,0 l/m 3,6 km/h (1 Bft) W-SW 253 0 min 0,000 mm 0,0 UV-I 25 W/m 1,0 C 1,3 C 4,8 km/h (1 Bft) 95,74 %
12.11.2016 14:12 1,3 C 98 % 1022,7 hPa 0,0 l/m 2,9 km/h (1 Bft) W-SW 253 0 min 0,000 mm 0,0 UV-I 25 W/m 1,0 C 1,3 C 4,8 km/h (1 Bft) 100,00 %
12.11.2016 14:14 1,3 C 98 % 1022,7 hPa 0,0 l/m 3,2 km/h (1 Bft) W-SW 253 0 min 0,000 mm 0,0 UV-I 24 W/m 1,0 C 1,3 C 6,4 km/h (2 Bft) 97,87 %
12.11.2016 14:16 1,3 C 98 % 1022,7 hPa 0,0 l/m 4,1 km/h (1 Bft) W 261 0 min 0,000 mm 0,0 UV-I 23 W/m 1,0 C 1,3 C 6,4 km/h (2 Bft) 100,00 %
12.11.2016 14:18 1,2 C 98 % 1022,6 hPa 0,0 l/m 3,8 km/h (1 Bft) W 260 0 min 0,000 mm 0,0 UV-I 21 W/m 0,9 C 1,2 C 4,8 km/h (1 Bft) 100,00 %
12.11.2016 14:20 1,2 C 98 % 1022,6 hPa 0,0 l/m 4,4 km/h (1 Bft) W 260 0 min 0,000 mm 0,0 UV-I 21 W/m 0,9 C 1,2 C 6,4 km/h (2 Bft) 95,83 %
12.11.2016 14:22 1,2 C 98 % 1022,6 hPa 0,0 l/m 4,7 km/h (1 Bft) W-SW 253 0 min 0,000 mm 0,0 UV-I 21 W/m 0,9 C 1,2 C 6,4 km/h (2 Bft) 100,00 %
12.11.2016 14:24 1,2 C 98 % 1022,6 hPa 0,0 l/m 3,9 km/h (1 Bft) W 259 0 min 0,000 mm 0,0 UV-I 21 W/m 0,9 C 1,2 C 6,4 km/h (2 Bft) 100,00 %
12.11.2016 14:26 1,2 C 98 % 1022,6 hPa 0,0 l/m 3,4 km/h (1 Bft) W 259 0 min 0,000 mm 0,0 UV-I 21 W/m 0,9 C 1,2 C 4,8 km/h (1 Bft) 97,87 %
12.11.2016 14:28 1,3 C 98 % 1022,7 hPa 0,0 l/m 4,3 km/h (1 Bft) W 263 0 min 0,000 mm 0,0 UV-I 21 W/m 1,0 C 1,3 C 9,7 km/h (2 Bft) 100,00 %
12.11.2016 14:30 1,2 C 98 % 1022,7 hPa 0,0 l/m 6,9 km/h (2 Bft) W-SW 257 0 min 0,000 mm 0,0 UV-I 21 W/m 0,9 C 0,7 C 11,3 km/h (2 Bft) 95,74 %
12.11.2016 14:32 1,2 C 98 % 1022,6 hPa 0,2 l/m 5,3 km/h (1 Bft) W-SW 241 0 min 0,000 mm 0,0 UV-I 21 W/m 0,9 C 1,2 C 8,0 km/h (2 Bft) 100,00 %
12.11.2016 14:34 1,2 C 98 % 1022,7 hPa 0,0 l/m 4,8 km/h (1 Bft) W-SW 248 0 min 0,000 mm 0,0 UV-I 24 W/m 0,9 C 1,2 C 6,4 km/h (2 Bft) 100,00 %
12.11.2016 14:36 1,2 C 98 % 1022,6 hPa 0,0 l/m 6,0 km/h (2 Bft) W 260 0 min 0,000 mm 0,0 UV-I 24 W/m 0,9 C 1,2 C 11,3 km/h (2 Bft) 97,87 %
12.11.2016 14:38 1,2 C 98 % 1022,6 hPa 0,0 l/m 5,7 km/h (1 Bft) W 268 0 min 0,000 mm 0,0 UV-I 23 W/m 0,9 C 1,2 C 8,0 km/h (2 Bft) 95,74 %
12.11.2016 14:40 1,2 C 98 % 1022,6 hPa 0,0 l/m 6,1 km/h (2 Bft) W 266 0 min 0,000 mm 0,0 UV-I 21 W/m 0,9 C 1,2 C 9,7 km/h (2 Bft) 97,87 %
12.11.2016 14:42 1,2 C 98 % 1022,6 hPa 0,0 l/m 4,6 km/h (1 Bft) W-SW 254 0 min 0,000 mm 0,0 UV-I 21 W/m 0,9 C 1,2 C 6,4 km/h (2 Bft) 100,00 %
12.11.2016 14:44 1,2 C 98 % 1022,6 hPa 0,0 l/m 6,1 km/h (2 Bft) W-SW 257 0 min 0,000 mm 0,0 UV-I 21 W/m 0,9 C 1,2 C 9,7 km/h (2 Bft) 97,87 %
12.11.2016 14:46 1,2 C 98 % 1022,6 hPa 0,0 l/m 4,2 km/h (1 Bft) W 267 0 min 0,000 mm 0,0 UV-I 19 W/m 0,9 C 1,2 C 6,4 km/h (2 Bft) 100,00 %
12.11.2016 14:48 1,2 C 97 % 1022,7 hPa 0,0 l/m 4,8 km/h (1 Bft) W 269 0 min 0,000 mm 0,0 UV-I 18 W/m 0,8 C 1,2 C 9,7 km/h (2 Bft) 97,87 %
12.11.2016 14:50 1,2 C 97 % 1022,7 hPa 0,0 l/m 6,3 km/h (2 Bft) W-SW 254 0 min 0,000 mm 0,0 UV-I 18 W/m 0,8 C 1,2 C 9,7 km/h (2 Bft) 100,00 %
12.11.2016 14:52 1,2 C 97 % 1022,8 hPa 0,0 l/m 5,3 km/h (1 Bft) W-SW 245 0 min 0,000 mm 0,0 UV-I 18 W/m 0,8 C 1,2 C 8,0 km/h (2 Bft) 95,74 %
12.11.2016 14:54 1,2 C 97 % 1022,6 hPa 0,0 l/m 5,0 km/h (1 Bft) W 259 0 min 0,000 mm 0,0 UV-I 18 W/m 0,8 C 1,2 C 6,4 km/h (2 Bft) 97,87 %
12.11.2016 14:56 1,2 C 97 % 1022,7 hPa 0,0 l/m 6,1 km/h (2 Bft) W 259 0 min 0,000 mm 0,0 UV-I 18 W/m 0,8 C 1,2 C 11,3 km/h (2 Bft) 100,00 %
12.11.2016 14:58 1,1 C 97 % 1022,7 hPa 0,0 l/m 4,2 km/h (1 Bft) W 263 0 min 0,000 mm 0,0 UV-I 17 W/m 0,7 C 1,1 C 6,4 km/h (2 Bft) 100,00 %
12.11.2016 15:00 1,1 C 97 % 1022,8 hPa 0,0 l/m 5,4 km/h (1 Bft) W-SW 252 0 min 0,000 mm 0,0 UV-I 16 W/m 0,7 C 1,1 C 8,0 km/h (2 Bft) 97,92 %
12.11.2016 15:02 1,1 C 97 % 1022,8 hPa 0,0 l/m 4,1 km/h (1 Bft) W 270 0 min 0,000 mm 0,0 UV-I 16 W/m 0,7 C 1,1 C 6,4 km/h (2 Bft) 97,14 %
12.11.2016 15:04 1,1 C 97 % 1022,8 hPa 0,0 l/m 5,0 km/h (1 Bft) SW 234 0 min 0,000 mm 0,0 UV-I 15 W/m 0,7 C 1,1 C 11,3 km/h (2 Bft) 100,00 %
12.11.2016 15:06 1,1 C 97 % 1022,8 hPa 0,0 l/m 5,3 km/h (1 Bft) W 274 0 min 0,000 mm 0,0 UV-I 14 W/m 0,7 C 1,1 C 9,7 km/h (2 Bft) 100,00 %
12.11.2016 15:08 1,1 C 97 % 1022,8 hPa 0,0 l/m 5,3 km/h (1 Bft) W-NW 285 0 min 0,000 mm 0,0 UV-I 14 W/m 0,7 C 1,1 C 11,3 km/h (2 Bft) 95,74 %
12.11.2016 15:10 1,1 C 97 % 1022,7 hPa 0,0 l/m 3,8 km/h (1 Bft) W-NW 287 0 min 0,000 mm 0,0 UV-I 14 W/m 0,7 C 1,1 C 4,8 km/h (1 Bft) 100,00 %
12.11.2016 15:12 1,1 C 97 % 1022,8 hPa 0,2 l/m 3,2 km/h (1 Bft) W-NW 287 0 min 0,000 mm 0,0 UV-I 14 W/m 0,7 C 1,1 C 4,8 km/h (1 Bft) 97,87 %
12.11.2016 15:14 1,1 C 97 % 1022,8 hPa 0,0 l/m 3,2 km/h (1 Bft) W-NW 288 0 min 0,000 mm 0,0 UV-I 12 W/m 0,7 C 1,1 C 6,4 km/h (2 Bft) 100,00 %
12.11.2016 15:16 1,1 C 97 % 1022,8 hPa 0,0 l/m 2,9 km/h (1 Bft) W-NW 287 0 min 0,000 mm 0,0 UV-I 12 W/m 0,7 C 1,1 C 4,8 km/h (1 Bft) 100,00 %
12.11.2016 15:18 1,1 C 97 % 1022,8 hPa 0,0 l/m 4,6 km/h (1 Bft) W 269 0 min 0,000 mm 0,0 UV-I 12 W/m 0,7 C 1,1 C 6,4 km/h (2 Bft) 100,00 %
12.11.2016 15:20 1,1 C 97 % 1022,8 hPa 0,0 l/m 4,7 km/h (1 Bft) W 263 0 min 0,000 mm 0,0 UV-I 12 W/m 0,7 C 1,1 C 6,4 km/h (2 Bft) 100,00 %
12.11.2016 15:22 1,1 C 97 % 1022,9 hPa 0,0 l/m 3,2 km/h (1 Bft) W 263 0 min 0,000 mm 0,0 UV-I 12 W/m 0,7 C 1,1 C 4,8 km/h (1 Bft) 97,87 %
12.11.2016 15:24 1,1 C 97 % 1022,8 hPa 0,0 l/m 2,3 km/h (1 Bft) W 263 0 min 0,000 mm 0,0 UV-I 11 W/m 0,7 C 1,1 C 6,4 km/h (2 Bft) 100,00 %
12.11.2016 15:26 1,1 C 97 % 1022,8 hPa 0,0 l/m 3,3 km/h (1 Bft) W 263 0 min 0,000 mm 0,0 UV-I 11 W/m 0,7 C 1,1 C 4,8 km/h (1 Bft) 97,87 %
12.11.2016 15:28 1,1 C 97 % 1022,8 hPa 0,0 l/m 4,4 km/h (1 Bft) W 262 0 min 0,000 mm 0,0 UV-I 11 W/m 0,7 C 1,1 C 6,4 km/h (2 Bft) 97,87 %
12.11.2016 15:30 1,1 C 97 % 1022,9 hPa 0,0 l/m 4,5 km/h (1 Bft) W 265 0 min 0,000 mm 0,0 UV-I 11 W/m 0,7 C 1,1 C 6,4 km/h (2 Bft) 100,00 %
12.11.2016 15:32 1,0 C 97 % 1022,8 hPa 0,0 l/m 4,7 km/h (1 Bft) W 264 0 min 0,000 mm 0,0 UV-I 9 W/m 0,6 C 1,0 C 9,7 km/h (2 Bft) 100,00 %
12.11.2016 15:34 1,0 C 97 % 1022,8 hPa 0,0 l/m 3,2 km/h (1 Bft) W 273 0 min 0,000 mm 0,0 UV-I 9 W/m 0,6 C 1,0 C 6,4 km/h (2 Bft) 97,87 %
12.11.2016 15:36 0,9 C 98 % 1022,8 hPa 0,0 l/m 4,4 km/h (1 Bft) W-NW 287 0 min 0,000 mm 0,0 UV-I 9 W/m 0,6 C 0,9 C 6,4 km/h (2 Bft) 95,74 %
12.11.2016 15:38 1,0 C 98 % 1022,8 hPa 0,0 l/m 3,2 km/h (1 Bft) W-NW 285 0 min 0,000 mm 0,0 UV-I 9 W/m 0,7 C 1,0 C 4,8 km/h (1 Bft) 97,87 %
12.11.2016 15:40 0,9 C 98 % 1022,9 hPa 0,0 l/m 1,2 km/h (1 Bft) W-NW 287 0 min 0,000 mm 0,0 UV-I 9 W/m 0,6 C 0,9 C 4,8 km/h (1 Bft) 95,74 %
12.11.2016 15:42 0,9 C 98 % 1022,8 hPa 0,0 l/m 3,7 km/h (1 Bft) W-NW 283 0 min 0,000 mm 0,0 UV-I 9 W/m 0,6 C 0,9 C 4,8 km/h (1 Bft) 97,62 %
12.11.2016 15:44 0,9 C 98 % 1022,8 hPa 0,0 l/m 3,0 km/h (1 Bft) W-NW 283 0 min 0,000 mm 0,0 UV-I 9 W/m 0,6 C 0,9 C 4,8 km/h (1 Bft) 97,87 %
12.11.2016 15:46 0,9 C 98 % 1022,8 hPa 0,0 l/m 3,2 km/h (1 Bft) W 281 0 min 0,000 mm 0,0 UV-I 7 W/m 0,6 C 0,9 C 4,8 km/h (1 Bft) 97,87 %
12.11.2016 15:48 0,9 C 98 % 1022,9 hPa 0,0 l/m 3,6 km/h (1 Bft) W 274 0 min 0,000 mm 0,0 UV-I 7 W/m 0,6 C 0,9 C 6,4 km/h (2 Bft) 96,00 %
12.11.2016 15:50 0,9 C 98 % 1022,8 hPa 0,0 l/m 3,0 km/h (1 Bft) W 275 0 min 0,000 mm 0,0 UV-I 7 W/m 0,6 C 0,9 C 4,8 km/h (1 Bft) 93,62 %
12.11.2016 15:52 0,9 C 98 % 1022,9 hPa 0,2 l/m 1,1 km/h (1 Bft) W 275 0 min 0,000 mm 0,0 UV-I 7 W/m 0,6 C 0,9 C 3,2 km/h (1 Bft) 96,00 %
12.11.2016 15:54 0,9 C 98 % 1022,9 hPa 0,0 l/m 1,2 km/h (1 Bft) W 275 0 min 0,000 mm 0,0 UV-I 7 W/m 0,6 C 0,9 C 3,2 km/h (1 Bft) 95,74 %
12.11.2016 15:56 0,9 C 98 % 1022,8 hPa 0,0 l/m 1,8 km/h (1 Bft) W 275 0 min 0,000 mm 0,0 UV-I 6 W/m 0,6 C 0,9 C 3,2 km/h (1 Bft) 97,87 %
12.11.2016 15:58 0,9 C 98 % 1022,8 hPa 0,0 l/m 3,2 km/h (1 Bft) W 275 0 min 0,000 mm 0,0 UV-I 5 W/m 0,6 C 0,9 C 4,8 km/h (1 Bft) 97,14 %
12.11.2016 16:00 0,9 C 98 % 1022,8 hPa 0,0 l/m 3,8 km/h (1 Bft) W 278 0 min 0,000 mm 0,0 UV-I 5 W/m 0,6 C 0,9 C 6,4 km/h (2 Bft) 93,62 %
12.11.2016 16:02 0,9 C 98 % 1022,8 hPa 0,0 l/m 3,6 km/h (1 Bft) W 273 0 min 0,000 mm 0,0 UV-I 5 W/m 0,6 C 0,9 C 4,8 km/h (1 Bft) 97,87 %
12.11.2016 16:04 0,9 C 98 % 1022,9 hPa 0,0 l/m 2,2 km/h (1 Bft) W 273 0 min 0,000 mm 0,0 UV-I 5 W/m 0,6 C 0,9 C 3,2 km/h (1 Bft) 97,87 %
12.11.2016 16:06 0,9 C 98 % 1022,9 hPa 0,0 l/m 3,1 km/h (1 Bft) W 273 0 min 0,000 mm 0,0 UV-I 5 W/m 0,6 C 0,9 C 4,8 km/h (1 Bft) 95,74 %
12.11.2016 16:08 0,9 C 98 % 1022,9 hPa 0,0 l/m 3,8 km/h (1 Bft) W-NW 284 0 min 0,000 mm 0,0 UV-I 5 W/m 0,6 C 0,9 C 6,4 km/h (2 Bft) 97,87 %
12.11.2016 16:10 0,9 C 97 % 1022,9 hPa 0,0 l/m 3,1 km/h (1 Bft) W-NW 284 0 min 0,000 mm 0,0 UV-I 5 W/m 0,5 C 0,9 C 6,4 km/h (2 Bft) 97,87 %
12.11.2016 16:12 0,9 C 97 % 1022,9 hPa 0,0 l/m 2,5 km/h (1 Bft) W-NW 284 0 min 0,000 mm 0,0 UV-I 5 W/m 0,5 C 0,9 C 3,2 km/h (1 Bft) 100,00 %
12.11.2016 16:14 0,9 C 97 % 1022,9 hPa 0,0 l/m 3,2 km/h (1 Bft) W-NW 284 0 min 0,000 mm 0,0 UV-I 1 W/m 0,5 C 0,9 C 4,8 km/h (1 Bft) 97,87 %
12.11.2016 16:16 0,9 C 97 % 1023,0 hPa 0,0 l/m 3,2 km/h (1 Bft) W-NW 284 0 min 0,000 mm 0,0 UV-I 0 W/m 0,5 C 0,9 C 4,8 km/h (1 Bft) 95,83 %
12.11.2016 16:18 0,9 C 97 % 1023,0 hPa 0,0 l/m 2,9 km/h (1 Bft) W-NW 284 0 min 0,000 mm 0,0 UV-I 0 W/m 0,5 C 0,9 C 4,8 km/h (1 Bft) 100,00 %
12.11.2016 16:20 0,9 C 98 % 1023,0 hPa 0,0 l/m 2,4 km/h (1 Bft) W-NW 284 0 min 0,000 mm 0,0 UV-I 0 W/m 0,6 C 0,9 C 4,8 km/h (1 Bft) 97,96 %
12.11.2016 16:22 0,9 C 98 % 1023,0 hPa 0,0 l/m 1,9 km/h (1 Bft) W-NW 284 0 min 0,000 mm 0,0 UV-I 0 W/m 0,6 C 0,9 C 3,2 km/h (1 Bft) 100,00 %
12.11.2016 16:24 0,9 C 98 % 1023,0 hPa 0,0 l/m 2,6 km/h (1 Bft) W-NW 284 0 min 0,000 mm 0,0 UV-I 0 W/m 0,6 C 0,9 C 4,8 km/h (1 Bft) 100,00 %
12.11.2016 16:26 0,9 C 98 % 1023,0 hPa 0,0 l/m 2,3 km/h (1 Bft) W-NW 284 0 min 0,000 mm 0,0 UV-I 0 W/m 0,6 C 0,9 C 3,2 km/h (1 Bft) 100,00 %
12.11.2016 16:28 1,0 C 98 % 1023,0 hPa 0,0 l/m 3,2 km/h (1 Bft) W-NW 284 0 min 0,000 mm 0,0 UV-I 0 W/m 0,7 C 1,0 C 4,8 km/h (1 Bft) 100,00 %
12.11.2016 16:30 0,9 C 98 % 1023,1 hPa 0,0 l/m 3,4 km/h (1 Bft) W-NW 283 0 min 0,000 mm 0,0 UV-I 0 W/m 0,6 C 0,9 C 4,8 km/h (1 Bft) 100,00 %
12.11.2016 16:32 1,0 C 98 % 1023,1 hPa 0,0 l/m 3,3 km/h (1 Bft) W-NW 283 0 min 0,000 mm 0,0 UV-I 0 W/m 0,7 C 1,0 C 4,8 km/h (1 Bft) 100,00 %
12.11.2016 16:34 1,0 C 98 % 1023,2 hPa 0,0 l/m 3,8 km/h (1 Bft) W-NW 282 0 min 0,000 mm 0,0 UV-I 0 W/m 0,7 C 1,0 C 6,4 km/h (2 Bft) 100,00 %
12.11.2016 16:36 0,9 C 98 % 1023,2 hPa 0,0 l/m 3,7 km/h (1 Bft) W 278 0 min 0,000 mm 0,0 UV-I 0 W/m 0,6 C 0,9 C 6,4 km/h (2 Bft) 100,00 %
12.11.2016 16:38 1,0 C 98 % 1023,2 hPa 0,0 l/m 2,3 km/h (1 Bft) W 278 0 min 0,000 mm 0,0 UV-I 0 W/m 0,7 C 1,0 C 3,2 km/h (1 Bft) 97,87 %
12.11.2016 16:40 1,0 C 98 % 1023,2 hPa 0,0 l/m 1,9 km/h (1 Bft) W 278 0 min 0,000 mm 0,0 UV-I 0 W/m 0,7 C 1,0 C 3,2 km/h (1 Bft) 97,87 %
12.11.2016 16:42 1,0 C 98 % 1023,2 hPa 0,0 l/m 1,9 km/h (1 Bft) W 278 0 min 0,000 mm 0,0 UV-I 0 W/m 0,7 C 1,0 C 3,2 km/h (1 Bft) 95,74 %
12.11.2016 16:44 1,0 C 98 % 1023,2 hPa 0,0 l/m 2,1 km/h (1 Bft) W 278 0 min 0,000 mm 0,0 UV-I 0 W/m 0,7 C 1,0 C 3,2 km/h (1 Bft) 97,87 %
12.11.2016 16:46 1,0 C 98 % 1023,2 hPa 0,0 l/m 1,6 km/h (1 Bft) W 278 0 min 0,000 mm 0,0 UV-I 0 W/m 0,7 C 1,0 C 3,2 km/h (1 Bft) 97,87 %
12.11.2016 16:48 1,0 C 98 % 1023,2 hPa 0,0 l/m 1,6 km/h (1 Bft) W 278 0 min 0,000 mm 0,0 UV-I 0 W/m 0,7 C 1,0 C 3,2 km/h (1 Bft) 100,00 %
12.11.2016 16:50 1,0 C 98 % 1023,2 hPa 0,0 l/m 2,3 km/h (1 Bft) W 278 0 min 0,000 mm 0,0 UV-I 0 W/m 0,7 C 1,0 C 3,2 km/h (1 Bft) 97,56 %
12.11.2016 16:52 1,0 C 98 % 1023,2 hPa 0,0 l/m 0,8 km/h (0 Bft) W 278 0 min 0,000 mm 0,0 UV-I 0 W/m 0,7 C 1,0 C 3,2 km/h (1 Bft) 100,00 %
12.11.2016 16:54 1,1 C 98 % 1023,3 hPa 0,0 l/m 0,0 km/h (0 Bft) W 278 0 min 0,000 mm 0,0 UV-I 0 W/m 0,8 C 1,1 C 1,6 km/h (1 Bft) 95,74 %
12.11.2016 16:56 1,1 C 98 % 1023,3 hPa 0,0 l/m 0,6 km/h (0 Bft) W 278 0 min 0,000 mm 0,0 UV-I 0 W/m 0,8 C 1,1 C 1,6 km/h (1 Bft) 100,00 %
12.11.2016 16:58 1,1 C 98 % 1023,3 hPa 0,0 l/m 1,3 km/h (1 Bft) W 278 0 min 0,000 mm 0,0 UV-I 0 W/m 0,8 C 1,1 C 3,2 km/h (1 Bft) 100,00 %
12.11.2016 17:00 1,1 C 98 % 1023,3 hPa 0,0 l/m 1,2 km/h (1 Bft) W 278 0 min 0,000 mm 0,0 UV-I 0 W/m 0,8 C 1,1 C 1,6 km/h (1 Bft) 100,00 %
12.11.2016 17:02 1,0 C 98 % 1023,3 hPa 0,0 l/m 1,0 km/h (0 Bft) W 278 0 min 0,000 mm 0,0 UV-I 0 W/m 0,7 C 1,0 C 3,2 km/h (1 Bft) 100,00 %
12.11.2016 17:04 1,1 C 98 % 1023,3 hPa 0,0 l/m 2,8 km/h (1 Bft) W 278 0 min 0,000 mm 0,0 UV-I 0 W/m 0,8 C 1,1 C 4,8 km/h (1 Bft) 100,00 %
12.11.2016 17:06 1,1 C 98 % 1023,3 hPa 0,0 l/m 3,1 km/h (1 Bft) W 278 0 min 0,000 mm 0,0 UV-I 0 W/m 0,8 C 1,1 C 4,8 km/h (1 Bft) 100,00 %
12.11.2016 17:08 1,1 C 98 % 1023,4 hPa 0,0 l/m 2,6 km/h (1 Bft) W 278 0 min 0,000 mm 0,0 UV-I 0 W/m 0,8 C 1,1 C 3,2 km/h (1 Bft) 100,00 %
12.11.2016 17:10 1,1 C 98 % 1023,3 hPa 0,0 l/m 1,8 km/h (1 Bft) W 278 0 min 0,000 mm 0,0 UV-I 0 W/m 0,8 C 1,1 C 3,2 km/h (1 Bft) 100,00 %
12.11.2016 17:12 1,1 C 98 % 1023,4 hPa 0,0 l/m 3,2 km/h (1 Bft) W 278 0 min 0,000 mm 0,0 UV-I 0 W/m 0,8 C 1,1 C 4,8 km/h (1 Bft) 100,00 %
12.11.2016 17:14 1,1 C 98 % 1023,4 hPa 0,0 l/m 2,5 km/h (1 Bft) W 278 0 min 0,000 mm 0,0 UV-I 0 W/m 0,8 C 1,1 C 3,2 km/h (1 Bft) 100,00 %
12.11.2016 17:16 1,1 C 98 % 1023,4 hPa 0,0 l/m 1,5 km/h (1 Bft) W 278 0 min 0,000 mm 0,0 UV-I 0 W/m 0,8 C 1,1 C 3,2 km/h (1 Bft) 100,00 %
12.11.2016 17:18 1,1 C 98 % 1023,4 hPa 0,0 l/m 3,2 km/h (1 Bft) W 278 0 min 0,000 mm 0,0 UV-I 0 W/m 0,8 C 1,1 C 4,8 km/h (1 Bft) 95,74 %
12.11.2016 17:20 1,2 C 98 % 1023,4 hPa 0,0 l/m 3,0 km/h (1 Bft) W 277 0 min 0,000 mm 0,0 UV-I 0 W/m 0,9 C 1,2 C 4,8 km/h (1 Bft) 100,00 %
12.11.2016 17:22 1,2 C 98 % 1023,5 hPa 0,0 l/m 3,1 km/h (1 Bft) W 277 0 min 0,000 mm 0,0 UV-I 0 W/m 0,9 C 1,2 C 4,8 km/h (1 Bft) 100,00 %
12.11.2016 17:24 1,2 C 98 % 1023,4 hPa 0,0 l/m 3,0 km/h (1 Bft) W 277 0 min 0,000 mm 0,0 UV-I 0 W/m 0,9 C 1,2 C 4,8 km/h (1 Bft) 100,00 %
12.11.2016 17:26 1,2 C 98 % 1023,4 hPa 0,0 l/m 3,5 km/h (1 Bft) W 277 0 min 0,000 mm 0,0 UV-I 0 W/m 0,9 C 1,2 C 4,8 km/h (1 Bft) 100,00 %
12.11.2016 17:28 1,2 C 98 % 1023,5 hPa 0,2 l/m 2,8 km/h (1 Bft) W 271 0 min 0,000 mm 0,0 UV-I 0 W/m 0,9 C 1,2 C 4,8 km/h (1 Bft) 95,74 %
12.11.2016 17:30 1,2 C 98 % 1023,6 hPa 0,0 l/m 3,9 km/h (1 Bft) W 262 0 min 0,000 mm 0,0 UV-I 0 W/m 0,9 C 1,2 C 6,4 km/h (2 Bft) 100,00 %
12.11.2016 17:32 1,2 C 98 % 1023,6 hPa 0,0 l/m 3,7 km/h (1 Bft) W 262 0 min 0,000 mm 0,0 UV-I 0 W/m 0,9 C 1,2 C 6,4 km/h (2 Bft) 100,00 %
12.11.2016 17:34 1,2 C 98 % 1023,6 hPa 0,0 l/m 3,8 km/h (1 Bft) W 262 0 min 0,000 mm 0,0 UV-I 0 W/m 0,9 C 1,2 C 6,4 km/h (2 Bft) 100,00 %
12.11.2016 17:36 1,2 C 98 % 1023,6 hPa 0,0 l/m 3,4 km/h (1 Bft) W 262 0 min 0,000 mm 0,0 UV-I 0 W/m 0,9 C 1,2 C 4,8 km/h (1 Bft) 97,87 %
12.11.2016 17:38 1,2 C 98 % 1023,6 hPa 0,0 l/m 3,4 km/h (1 Bft) W 262 0 min 0,000 mm 0,0 UV-I 0 W/m 0,9 C 1,2 C 4,8 km/h (1 Bft) 97,87 %
12.11.2016 17:40 1,2 C 98 % 1023,6 hPa 0,0 l/m 3,8 km/h (1 Bft) W-SW 257 0 min 0,000 mm 0,0 UV-I 0 W/m 0,9 C 1,2 C 6,4 km/h (2 Bft) 95,74 %
12.11.2016 17:42 1,2 C 98 % 1023,6 hPa 0,0 l/m 4,2 km/h (1 Bft) W-SW 246 0 min 0,000 mm 0,0 UV-I 0 W/m 0,9 C 1,2 C 6,4 km/h (2 Bft) 95,74 %
12.11.2016 17:44 1,3 C 98 % 1023,6 hPa 0,0 l/m 3,8 km/h (1 Bft) W-SW 245 0 min 0,000 mm 0,0 UV-I 0 W/m 1,0 C 1,3 C 4,8 km/h (1 Bft) 97,92 %
12.11.2016 17:46 1,3 C 98 % 1023,6 hPa 0,0 l/m 3,3 km/h (1 Bft) W-SW 245 0 min 0,000 mm 0,0 UV-I 0 W/m 1,0 C 1,3 C 4,8 km/h (1 Bft) 93,62 %
12.11.2016 17:48 1,3 C 98 % 1023,7 hPa 0,0 l/m 3,6 km/h (1 Bft) W-SW 255 0 min 0,000 mm 0,0 UV-I 0 W/m 1,0 C 1,3 C 4,8 km/h (1 Bft) 95,74 %
12.11.2016 17:50 1,3 C 98 % 1023,6 hPa 0,0 l/m 4,3 km/h (1 Bft) W-SW 255 0 min 0,000 mm 0,0 UV-I 0 W/m 1,0 C 1,3 C 6,4 km/h (2 Bft) 95,74 %
12.11.2016 17:52 1,3 C 98 % 1023,6 hPa 0,0 l/m 4,9 km/h (1 Bft) W-SW 256 0 min 0,000 mm 0,0 UV-I 0 W/m 1,0 C 1,3 C 8,0 km/h (2 Bft) 95,74 %
12.11.2016 17:54 1,3 C 98 % 1023,6 hPa 0,0 l/m 3,8 km/h (1 Bft) W-SW 252 0 min 0,000 mm 0,0 UV-I 0 W/m 1,0 C 1,3 C 4,8 km/h (1 Bft) 97,87 %
12.11.2016 17:56 1,3 C 98 % 1023,6 hPa 0,0 l/m 3,6 km/h (1 Bft) W 273 0 min 0,000 mm 0,0 UV-I 0 W/m 1,0 C 1,3 C 6,4 km/h (2 Bft) 97,37 %
12.11.2016 17:58 1,3 C 98 % 1023,7 hPa 0,0 l/m 3,5 km/h (1 Bft) W 273 0 min 0,000 mm 0,0 UV-I 0 W/m 1,0 C 1,3 C 4,8 km/h (1 Bft) 93,62 %
12.11.2016 18:00 1,3 C 98 % 1023,7 hPa 0,0 l/m 3,8 km/h (1 Bft) W 273 0 min 0,000 mm 0,0 UV-I 0 W/m 1,0 C 1,3 C 4,8 km/h (1 Bft) 97,87 %
12.11.2016 18:02 1,3 C 98 % 1023,6 hPa 0,0 l/m 3,6 km/h (1 Bft) W 281 0 min 0,000 mm 0,0 UV-I 0 W/m 1,0 C 1,3 C 6,4 km/h (2 Bft) 96,00 %
12.11.2016 18:04 1,3 C 98 % 1023,7 hPa 0,0 l/m 3,0 km/h (1 Bft) W 281 0 min 0,000 mm 0,0 UV-I 0 W/m 1,0 C 1,3 C 4,8 km/h (1 Bft) 97,87 %
12.11.2016 18:06 1,3 C 98 % 1023,7 hPa 0,0 l/m 1,6 km/h (1 Bft) W 281 0 min 0,000 mm 0,0 UV-I 0 W/m 1,0 C 1,3 C 3,2 km/h (1 Bft) 95,74 %
12.11.2016 18:08 1,4 C 98 % 1023,7 hPa 0,0 l/m 2,3 km/h (1 Bft) W 281 0 min 0,000 mm 0,0 UV-I 0 W/m 1,1 C 1,4 C 4,8 km/h (1 Bft) 95,74 %
12.11.2016 18:10 1,4 C 98 % 1023,7 hPa 0,0 l/m 1,7 km/h (1 Bft) W 281 0 min 0,000 mm 0,0 UV-I 0 W/m 1,1 C 1,4 C 4,8 km/h (1 Bft) 98,00 %
12.11.2016 18:12 1,3 C 98 % 1023,7 hPa 0,0 l/m 0,9 km/h (0 Bft) W 281 0 min 0,000 mm 0,0 UV-I 0 W/m 1,0 C 1,3 C 1,6 km/h (1 Bft) 97,87 %
12.11.2016 18:14 1,3 C 98 % 1023,7 hPa 0,0 l/m 1,0 km/h (0 Bft) W 281 0 min 0,000 mm 0,0 UV-I 0 W/m 1,0 C 1,3 C 3,2 km/h (1 Bft) 97,37 %
12.11.2016 18:16 1,3 C 98 % 1023,8 hPa 0,0 l/m 2,4 km/h (1 Bft) W 281 0 min 0,000 mm 0,0 UV-I 0 W/m 1,0 C 1,3 C 3,2 km/h (1 Bft) 95,83 %
12.11.2016 18:18 1,3 C 98 % 1023,8 hPa 0,0 l/m 3,4 km/h (1 Bft) W 281 0 min 0,000 mm 0,0 UV-I 0 W/m 1,0 C 1,3 C 4,8 km/h (1 Bft) 100,00 %
12.11.2016 18:20 1,3 C 98 % 1023,8 hPa 0,0 l/m 1,3 km/h (1 Bft) W 281 0 min 0,000 mm 0,0 UV-I 0 W/m 1,0 C 1,3 C 3,2 km/h (1 Bft) 100,00 %
12.11.2016 18:22 1,3 C 98 % 1023,8 hPa 0,0 l/m 2,2 km/h (1 Bft) W 281 0 min 0,000 mm 0,0 UV-I 0 W/m 1,0 C 1,3 C 4,8 km/h (1 Bft) 97,96 %
12.11.2016 18:24 1,3 C 98 % 1023,8 hPa 0,0 l/m 2,8 km/h (1 Bft) W 281 0 min 0,000 mm 0,0 UV-I 0 W/m 1,0 C 1,3 C 4,8 km/h (1 Bft) 97,87 %
12.11.2016 18:26 1,3 C 98 % 1023,8 hPa 0,0 l/m 2,6 km/h (1 Bft) W 281 0 min 0,000 mm 0,0 UV-I 0 W/m 1,0 C 1,3 C 4,8 km/h (1 Bft) 100,00 %
12.11.2016 18:28 1,3 C 98 % 1023,8 hPa 0,0 l/m 1,7 km/h (1 Bft) W 281 0 min 0,000 mm 0,0 UV-I 0 W/m 1,0 C 1,3 C 3,2 km/h (1 Bft) 100,00 %
12.11.2016 18:30 1,4 C 98 % 1023,9 hPa 0,0 l/m 1,9 km/h (1 Bft) W 281 0 min 0,000 mm 0,0 UV-I 0 W/m 1,1 C 1,4 C 4,8 km/h (1 Bft) 100,00 %
12.11.2016 18:32 1,3 C 98 % 1023,9 hPa 0,0 l/m 1,6 km/h (1 Bft) W 281 0 min 0,000 mm 0,0 UV-I 0 W/m 1,0 C 1,3 C 3,2 km/h (1 Bft) 100,00 %
12.11.2016 18:34 1,4 C 98 % 1023,9 hPa 0,0 l/m 0,9 km/h (0 Bft) W 281 0 min 0,000 mm 0,0 UV-I 0 W/m 1,1 C 1,4 C 3,2 km/h (1 Bft) 100,00 %
12.11.2016 18:36 1,3 C 98 % 1023,9 hPa 0,0 l/m 1,3 km/h (1 Bft) W 281 0 min 0,000 mm 0,0 UV-I 0 W/m 1,0 C 1,3 C 3,2 km/h (1 Bft) 95,74 %
12.11.2016 18:38 1,3 C 98 % 1023,9 hPa 0,0 l/m 0,8 km/h (0 Bft) W 281 0 min 0,000 mm 0,0 UV-I 0 W/m 1,0 C 1,3 C 1,6 km/h (1 Bft) 100,00 %
12.11.2016 18:40 1,3 C 98 % 1023,9 hPa 0,0 l/m 1,7 km/h (1 Bft) W 281 0 min 0,000 mm 0,0 UV-I 0 W/m 1,0 C 1,3 C 3,2 km/h (1 Bft) 100,00 %
12.11.2016 18:42 1,4 C 98 % 1023,9 hPa 0,0 l/m 1,3 km/h (1 Bft) W 281 0 min 0,000 mm 0,0 UV-I 0 W/m 1,1 C 1,4 C 3,2 km/h (1 Bft) 100,00 %
12.11.2016 18:44 1,3 C 98 % 1023,8 hPa 0,0 l/m 0,4 km/h (0 Bft) W 281 0 min 0,000 mm 0,0 UV-I 0 W/m 1,0 C 1,3 C 1,6 km/h (1 Bft) 100,00 %
12.11.2016 18:46 1,3 C 98 % 1023,9 hPa 0,0 l/m 1,8 km/h (1 Bft) W 281 0 min 0,000 mm 0,0 UV-I 0 W/m 1,0 C 1,3 C 3,2 km/h (1 Bft) 97,87 %
12.11.2016 18:48 1,3 C 97 % 1023,8 hPa 0,0 l/m 0,7 km/h (0 Bft) W 281 0 min 0,000 mm 0,0 UV-I 0 W/m 0,9 C 1,3 C 1,6 km/h (1 Bft) 100,00 %
12.11.2016 18:50 1,3 C 98 % 1023,8 hPa 0,0 l/m 1,0 km/h (0 Bft) W 281 0 min 0,000 mm 0,0 UV-I 0 W/m 1,0 C 1,3 C 1,6 km/h (1 Bft) 100,00 %
12.11.2016 18:52 1,3 C 98 % 1023,8 hPa 0,0 l/m 1,0 km/h (0 Bft) W 281 0 min 0,000 mm 0,0 UV-I 0 W/m 1,0 C 1,3 C 3,2 km/h (1 Bft) 100,00 %
12.11.2016 18:54 1,3 C 98 % 1023,7 hPa 0,0 l/m 0,1 km/h (0 Bft) W 281 0 min 0,000 mm 0,0 UV-I 0 W/m 1,0 C 1,3 C 1,6 km/h (1 Bft) 97,87 %
12.11.2016 18:56 1,3 C 97 % 1023,8 hPa 0,0 l/m 2,0 km/h (1 Bft) W 281 0 min 0,000 mm 0,0 UV-I 0 W/m 0,9 C 1,3 C 3,2 km/h (1 Bft) 100,00 %
12.11.2016 18:58 1,4 C 97 % 1023,8 hPa 0,0 l/m 0,7 km/h (0 Bft) W 281 0 min 0,000 mm 0,0 UV-I 0 W/m 1,0 C 1,4 C 3,2 km/h (1 Bft) 100,00 %
12.11.2016 19:00 1,4 C 97 % 1023,8 hPa 0,0 l/m 0,6 km/h (0 Bft) W 281 0 min 0,000 mm 0,0 UV-I 0 W/m 1,0 C 1,4 C 3,2 km/h (1 Bft) 100,00 %
12.11.2016 19:02 1,4 C 97 % 1023,8 hPa 0,0 l/m 2,5 km/h (1 Bft) W 281 0 min 0,000 mm 0,0 UV-I 0 W/m 1,0 C 1,4 C 4,8 km/h (1 Bft) 100,00 %
12.11.2016 19:04 1,4 C 97 % 1023,8 hPa 0,0 l/m 1,7 km/h (1 Bft) W 281 0 min 0,000 mm 0,0 UV-I 0 W/m 1,0 C 1,4 C 4,8 km/h (1 Bft) 97,87 %
12.11.2016 19:06 1,4 C 97 % 1023,8 hPa 0,0 l/m 2,1 km/h (1 Bft) W 281 0 min 0,000 mm 0,0 UV-I 0 W/m 1,0 C 1,4 C 4,8 km/h (1 Bft) 97,87 %
12.11.2016 19:08 1,4 C 97 % 1023,8 hPa 0,2 l/m 2,0 km/h (1 Bft) W 281 0 min 0,000 mm 0,0 UV-I 0 W/m 1,0 C 1,4 C 3,2 km/h (1 Bft) 100,00 %
12.11.2016 19:10 1,4 C 97 % 1023,9 hPa 0,0 l/m 2,3 km/h (1 Bft) W 281 0 min 0,000 mm 0,0 UV-I 0 W/m 1,0 C 1,4 C 3,2 km/h (1 Bft) 100,00 %
12.11.2016 19:12 1,4 C 97 % 1023,8 hPa 0,0 l/m 2,2 km/h (1 Bft) W 281 0 min 0,000 mm 0,0 UV-I 0 W/m 1,0 C 1,4 C 4,8 km/h (1 Bft) 100,00 %
12.11.2016 19:14 1,4 C 97 % 1023,8 hPa 0,0 l/m 3,4 km/h (1 Bft) W 278 0 min 0,000 mm 0,0 UV-I 0 W/m 1,0 C 1,4 C 4,8 km/h (1 Bft) 100,00 %
12.11.2016 19:16 1,4 C 97 % 1023,8 hPa 0,0 l/m 3,7 km/h (1 Bft) W-SW 257 0 min 0,000 mm 0,0 UV-I 0 W/m 1,0 C 1,4 C 6,4 km/h (2 Bft) 97,96 %
12.11.2016 19:18 1,4 C 97 % 1023,8 hPa 0,0 l/m 3,7 km/h (1 Bft) W-SW 256 0 min 0,000 mm 0,0 UV-I 0 W/m 1,0 C 1,4 C 6,4 km/h (2 Bft) 100,00 %
12.11.2016 19:20 1,4 C 97 % 1023,8 hPa 0,0 l/m 2,6 km/h (1 Bft) W-SW 256 0 min 0,000 mm 0,0 UV-I 0 W/m 1,0 C 1,4 C 4,8 km/h (1 Bft) 100,00 %
12.11.2016 19:22 1,4 C 97 % 1023,8 hPa 0,0 l/m 2,2 km/h (1 Bft) W-SW 256 0 min 0,000 mm 0,0 UV-I 0 W/m 1,0 C 1,4 C 3,2 km/h (1 Bft) 100,00 %
12.11.2016 19:24 1,4 C 97 % 1023,8 hPa 0,0 l/m 2,2 km/h (1 Bft) W-SW 256 0 min 0,000 mm 0,0 UV-I 0 W/m 1,0 C 1,4 C 4,8 km/h (1 Bft) 97,92 %
12.11.2016 19:26 1,4 C 97 % 1023,8 hPa 0,0 l/m 2,8 km/h (1 Bft) W-SW 256 0 min 0,000 mm 0,0 UV-I 0 W/m 1,0 C 1,4 C 3,2 km/h (1 Bft) 97,96 %
12.11.2016 19:28 1,4 C 97 % 1023,8 hPa 0,0 l/m 2,8 km/h (1 Bft) W-SW 256 0 min 0,000 mm 0,0 UV-I 0 W/m 1,0 C 1,4 C 4,8 km/h (1 Bft) 97,87 %
12.11.2016 19:30 1,4 C 97 % 1023,8 hPa 0,0 l/m 1,6 km/h (1 Bft) W-SW 256 0 min 0,000 mm 0,0 UV-I 0 W/m 1,0 C 1,4 C 3,2 km/h (1 Bft) 100,00 %
12.11.2016 19:32 1,4 C 98 % 1023,7 hPa 0,0 l/m 0,4 km/h (0 Bft) W-SW 256 0 min 0,000 mm 0,0 UV-I 0 W/m 1,1 C 1,4 C 3,2 km/h (1 Bft) 100,00 %
12.11.2016 19:34 1,4 C 97 % 1023,8 hPa 0,0 l/m 1,6 km/h (1 Bft) W-SW 256 0 min 0,000 mm 0,0 UV-I 0 W/m 1,0 C 1,4 C 3,2 km/h (1 Bft) 100,00 %
12.11.2016 19:36 1,4 C 97 % 1023,8 hPa 0,0 l/m 1,5 km/h (1 Bft) W-SW 256 0 min 0,000 mm 0,0 UV-I 0 W/m 1,0 C 1,4 C 3,2 km/h (1 Bft) 100,00 %
12.11.2016 19:38 1,4 C 97 % 1023,7 hPa 0,0 l/m 0,8 km/h (0 Bft) W-SW 256 0 min 0,000 mm 0,0 UV-I 0 W/m 1,0 C 1,4 C 1,6 km/h (1 Bft) 100,00 %
12.11.2016 19:40 1,4 C 97 % 1023,8 hPa 0,0 l/m 1,9 km/h (1 Bft) W-SW 256 0 min 0,000 mm 0,0 UV-I 0 W/m 1,0 C 1,4 C 3,2 km/h (1 Bft) 100,00 %
12.11.2016 19:42 1,4 C 97 % 1023,8 hPa 0,0 l/m 1,5 km/h (1 Bft) W-SW 256 0 min 0,000 mm 0,0 UV-I 0 W/m 1,0 C 1,4 C 3,2 km/h (1 Bft) 94,29 %
12.11.2016 19:44 1,4 C 97 % 1023,8 hPa 0,0 l/m 1,9 km/h (1 Bft) W-SW 256 0 min 0,000 mm 0,0 UV-I 0 W/m 1,0 C 1,4 C 3,2 km/h (1 Bft) 96,00 %
12.11.2016 19:46 1,4 C 97 % 1023,8 hPa 0,0 l/m 1,4 km/h (1 Bft) W-SW 256 0 min 0,000 mm 0,0 UV-I 0 W/m 1,0 C 1,4 C 3,2 km/h (1 Bft) 95,92 %
12.11.2016 19:48 1,4 C 97 % 1023,8 hPa 0,0 l/m 2,2 km/h (1 Bft) W-SW 256 0 min 0,000 mm 0,0 UV-I 0 W/m 1,0 C 1,4 C 3,2 km/h (1 Bft) 97,87 %
12.11.2016 19:50 1,4 C 97 % 1023,8 hPa 0,0 l/m 3,2 km/h (1 Bft) W-SW 256 0 min 0,000 mm 0,0 UV-I 0 W/m 1,0 C 1,4 C 4,8 km/h (1 Bft) 97,87 %
12.11.2016 19:52 1,4 C 97 % 1023,8 hPa 0,0 l/m 3,2 km/h (1 Bft) W-SW 256 0 min 0,000 mm 0,0 UV-I 0 W/m 1,0 C 1,4 C 4,8 km/h (1 Bft) 93,62 %
12.11.2016 19:54 1,4 C 97 % 1023,8 hPa 0,0 l/m 2,8 km/h (1 Bft) W-SW 256 0 min 0,000 mm 0,0 UV-I 0 W/m 1,0 C 1,4 C 4,8 km/h (1 Bft) 97,87 %
12.11.2016 19:56 1,4 C 97 % 1023,8 hPa 0,0 l/m 2,7 km/h (1 Bft) W-SW 256 0 min 0,000 mm 0,0 UV-I 0 W/m 1,0 C 1,4 C 4,8 km/h (1 Bft) 97,87 %
12.11.2016 19:58 1,4 C 97 % 1023,8 hPa 0,0 l/m 3,0 km/h (1 Bft) W 271 0 min 0,000 mm 0,0 UV-I 0 W/m 1,0 C 1,4 C 4,8 km/h (1 Bft) 97,87 %
12.11.2016 20:00 1,4 C 97 % 1023,9 hPa 0,0 l/m 2,6 km/h (1 Bft) W 271 0 min 0,000 mm 0,0 UV-I 0 W/m 1,0 C 1,4 C 3,2 km/h (1 Bft) 100,00 %
12.11.2016 20:02 1,4 C 97 % 1023,8 hPa 0,0 l/m 2,5 km/h (1 Bft) W 271 0 min 0,000 mm 0,0 UV-I 0 W/m 1,0 C 1,4 C 3,2 km/h (1 Bft) 95,74 %
12.11.2016 20:04 1,4 C 97 % 1023,8 hPa 0,0 l/m 3,0 km/h (1 Bft) W 271 0 min 0,000 mm 0,0 UV-I 0 W/m 1,0 C 1,4 C 4,8 km/h (1 Bft) 97,87 %
12.11.2016 20:06 1,4 C 97 % 1023,9 hPa 0,0 l/m 3,3 km/h (1 Bft) W 271 0 min 0,000 mm 0,0 UV-I 0 W/m 1,0 C 1,4 C 4,8 km/h (1 Bft) 95,74 %
12.11.2016 20:08 1,4 C 97 % 1023,8 hPa 0,0 l/m 2,1 km/h (1 Bft) W 270 0 min 0,000 mm 0,0 UV-I 0 W/m 1,0 C 1,4 C 3,2 km/h (1 Bft) 95,74 %
12.11.2016 20:10 1,4 C 97 % 1023,8 hPa 0,0 l/m 2,3 km/h (1 Bft) W 271 0 min 0,000 mm 0,0 UV-I 0 W/m 1,0 C 1,4 C 3,2 km/h (1 Bft) 95,74 %
12.11.2016 20:12 1,4 C 97 % 1023,9 hPa 0,0 l/m 3,0 km/h (1 Bft) W 271 0 min 0,000 mm 0,0 UV-I 0 W/m 1,0 C 1,4 C 4,8 km/h (1 Bft) 98,00 %
12.11.2016 20:14 1,4 C 97 % 1023,9 hPa 0,0 l/m 3,0 km/h (1 Bft) W 271 0 min 0,000 mm 0,0 UV-I 0 W/m 1,0 C 1,4 C 3,2 km/h (1 Bft) 97,87 %
12.11.2016 20:16 1,4 C 97 % 1023,8 hPa 0,0 l/m 2,4 km/h (1 Bft) W 271 0 min 0,000 mm 0,0 UV-I 0 W/m 1,0 C 1,4 C 4,8 km/h (1 Bft) 97,87 %
12.11.2016 20:18 1,4 C 97 % 1023,8 hPa 0,0 l/m 3,0 km/h (1 Bft) W 271 0 min 0,000 mm 0,0 UV-I 0 W/m 1,0 C 1,4 C 4,8 km/h (1 Bft) 100,00 %
12.11.2016 20:20 1,4 C 97 % 1023,9 hPa 0,0 l/m 2,6 km/h (1 Bft) W 271 0 min 0,000 mm 0,0 UV-I 0 W/m 1,0 C 1,4 C 4,8 km/h (1 Bft) 100,00 %
12.11.2016 20:22 1,4 C 97 % 1023,8 hPa 0,0 l/m 2,1 km/h (1 Bft) W 271 0 min 0,000 mm 0,0 UV-I 0 W/m 1,0 C 1,4 C 3,2 km/h (1 Bft) 97,92 %
12.11.2016 20:24 1,4 C 97 % 1023,8 hPa 0,0 l/m 3,0 km/h (1 Bft) W 271 0 min 0,000 mm 0,0 UV-I 0 W/m 1,0 C 1,4 C 4,8 km/h (1 Bft) 100,00 %
12.11.2016 20:26 1,4 C 97 % 1023,8 hPa 0,0 l/m 3,6 km/h (1 Bft) W 271 0 min 0,000 mm 0,0 UV-I 0 W/m 1,0 C 1,4 C 4,8 km/h (1 Bft) 97,87 %
12.11.2016 20:28 1,4 C 97 % 1023,8 hPa 0,0 l/m 3,5 km/h (1 Bft) W 270 0 min 0,000 mm 0,0 UV-I 0 W/m 1,0 C 1,4 C 4,8 km/h (1 Bft) 100,00 %
12.11.2016 20:30 1,4 C 97 % 1023,8 hPa 0,0 l/m 3,6 km/h (1 Bft) W 269 0 min 0,000 mm 0,0 UV-I 0 W/m 1,0 C 1,4 C 6,4 km/h (2 Bft) 100,00 %
12.11.2016 20:32 1,4 C 97 % 1023,8 hPa 0,0 l/m 2,9 km/h (1 Bft) W 269 0 min 0,000 mm 0,0 UV-I 0 W/m 1,0 C 1,4 C 4,8 km/h (1 Bft) 95,74 %
12.11.2016 20:34 1,4 C 97 % 1023,8 hPa 0,0 l/m 4,3 km/h (1 Bft) W 268 0 min 0,000 mm 0,0 UV-I 0 W/m 1,0 C 1,4 C 6,4 km/h (2 Bft) 95,74 %
12.11.2016 20:36 1,4 C 97 % 1023,8 hPa 0,0 l/m 3,6 km/h (1 Bft) W 268 0 min 0,000 mm 0,0 UV-I 0 W/m 1,0 C 1,4 C 4,8 km/h (1 Bft) 100,00 %
12.11.2016 20:38 1,4 C 97 % 1023,8 hPa 0,0 l/m 2,5 km/h (1 Bft) W 268 0 min 0,000 mm 0,0 UV-I 0 W/m 1,0 C 1,4 C 4,8 km/h (1 Bft) 98,00 %
12.11.2016 20:40 1,4 C 97 % 1023,8 hPa 0,0 l/m 2,9 km/h (1 Bft) W 268 0 min 0,000 mm 0,0 UV-I 0 W/m 1,0 C 1,4 C 4,8 km/h (1 Bft) 100,00 %
12.11.2016 20:42 1,4 C 97 % 1023,8 hPa 0,0 l/m 3,6 km/h (1 Bft) W 268 0 min 0,000 mm 0,0 UV-I 0 W/m 1,0 C 1,4 C 4,8 km/h (1 Bft) 100,00 %
12.11.2016 20:44 1,4 C 97 % 1023,8 hPa 0,0 l/m 3,7 km/h (1 Bft) W 262 0 min 0,000 mm 0,0 UV-I 0 W/m 1,0 C 1,4 C 4,8 km/h (1 Bft) 97,87 %
12.11.2016 20:46 1,4 C 97 % 1023,8 hPa 0,0 l/m 3,7 km/h (1 Bft) W 262 0 min 0,000 mm 0,0 UV-I 0 W/m 1,0 C 1,4 C 4,8 km/h (1 Bft) 97,87 %
12.11.2016 20:48 1,4 C 97 % 1023,8 hPa 0,0 l/m 4,2 km/h (1 Bft) W 259 0 min 0,000 mm 0,0 UV-I 0 W/m 1,0 C 1,4 C 6,4 km/h (2 Bft) 95,74 %
12.11.2016 20:50 1,3 C 97 % 1023,8 hPa 0,0 l/m 3,6 km/h (1 Bft) W 259 0 min 0,000 mm 0,0 UV-I 0 W/m 0,9 C 1,3 C 4,8 km/h (1 Bft) 98,00 %
12.11.2016 20:52 1,3 C 97 % 1023,8 hPa 0,0 l/m 3,9 km/h (1 Bft) W 263 0 min 0,000 mm 0,0 UV-I 0 W/m 0,9 C 1,3 C 4,8 km/h (1 Bft) 97,87 %
12.11.2016 20:54 1,3 C 97 % 1023,9 hPa 0,0 l/m 4,1 km/h (1 Bft) W 263 0 min 0,000 mm 0,0 UV-I 0 W/m 0,9 C 1,3 C 4,8 km/h (1 Bft) 97,87 %
12.11.2016 20:56 1,3 C 97 % 1023,8 hPa 0,0 l/m 4,2 km/h (1 Bft) W 262 0 min 0,000 mm 0,0 UV-I 0 W/m 0,9 C 1,3 C 6,4 km/h (2 Bft) 97,87 %
12.11.2016 21:00 1,3 C 97 % 1023,9 hPa 0,0 l/m 4,2 km/h (1 Bft) W-SW 257 0 min 0,000 mm 0,0 UV-I 0 W/m 0,9 C 1,3 C 4,8 km/h (1 Bft) 100,00 %
12.11.2016 21:02 1,3 C 97 % 1023,9 hPa 0,0 l/m 2,8 km/h (1 Bft) W-SW 257 0 min 0,000 mm 0,0 UV-I 0 W/m 0,9 C 1,3 C 3,2 km/h (1 Bft) 100,00 %
12.11.2016 21:04 1,3 C 97 % 1023,9 hPa 0,0 l/m 3,1 km/h (1 Bft) W-SW 257 0 min 0,000 mm 0,0 UV-I 0 W/m 0,9 C 1,3 C 4,8 km/h (1 Bft) 100,00 %
12.11.2016 21:06 1,3 C 97 % 1023,9 hPa 0,0 l/m 2,7 km/h (1 Bft) W-SW 257 0 min 0,000 mm 0,0 UV-I 0 W/m 0,9 C 1,3 C 3,2 km/h (1 Bft) 100,00 %
12.11.2016 21:08 1,3 C 97 % 1023,9 hPa 0,0 l/m 2,1 km/h (1 Bft) W-SW 257 0 min 0,000 mm 0,0 UV-I 0 W/m 0,9 C 1,3 C 3,2 km/h (1 Bft) 100,00 %
12.11.2016 21:10 1,3 C 97 % 1023,9 hPa 0,0 l/m 2,4 km/h (1 Bft) W-SW 257 0 min 0,000 mm 0,0 UV-I 0 W/m 0,9 C 1,3 C 4,8 km/h (1 Bft) 100,00 %
12.11.2016 21:12 1,3 C 97 % 1023,9 hPa 0,0 l/m 3,3 km/h (1 Bft) W-SW 257 0 min 0,000 mm 0,0 UV-I 0 W/m 0,9 C 1,3 C 6,4 km/h (2 Bft) 100,00 %
12.11.2016 21:14 1,3 C 97 % 1023,9 hPa 0,0 l/m 2,5 km/h (1 Bft) W-SW 257 0 min 0,000 mm 0,0 UV-I 0 W/m 0,9 C 1,3 C 4,8 km/h (1 Bft) 100,00 %
12.11.2016 21:16 1,3 C 97 % 1023,9 hPa 0,0 l/m 3,0 km/h (1 Bft) W-SW 257 0 min 0,000 mm 0,0 UV-I 0 W/m 0,9 C 1,3 C 4,8 km/h (1 Bft) 100,00 %
12.11.2016 21:18 1,3 C 97 % 1023,9 hPa 0,0 l/m 4,0 km/h (1 Bft) W-SW 257 0 min 0,000 mm 0,0 UV-I 0 W/m 0,9 C 1,3 C 6,4 km/h (2 Bft) 100,00 %
12.11.2016 21:20 1,3 C 97 % 1023,9 hPa 0,0 l/m 3,0 km/h (1 Bft) W-SW 257 0 min 0,000 mm 0,0 UV-I 0 W/m 0,9 C 1,3 C 4,8 km/h (1 Bft) 94,29 %
12.11.2016 21:23 1,3 C 97 % 1023,8 hPa 0,0 l/m 4,8 km/h (1 Bft) W-SW 250 0 min 0,000 mm 0,0 UV-I 0 W/m 0,9 C 1,3 C 6,4 km/h (2 Bft) 100,00 %
12.11.2016 21:24 1,2 C 97 % 1023,8 hPa 0,0 l/m 3,6 km/h (1 Bft) W-SW 238 0 min 0,000 mm 0,0 UV-I 0 W/m 0,8 C 1,2 C 4,8 km/h (1 Bft) 100,00 %
12.11.2016 21:26 1,2 C 97 % 1023,9 hPa 0,0 l/m 4,2 km/h (1 Bft) W-SW 238 0 min 0,000 mm 0,0 UV-I 0 W/m 0,8 C 1,2 C 6,4 km/h (2 Bft) 100,00 %
12.11.2016 21:28 1,2 C 97 % 1023,9 hPa 0,0 l/m 4,0 km/h (1 Bft) W-SW 238 0 min 0,000 mm 0,0 UV-I 0 W/m 0,8 C 1,2 C 6,4 km/h (2 Bft) 100,00 %
12.11.2016 21:30 1,2 C 97 % 1023,9 hPa 0,0 l/m 3,9 km/h (1 Bft) W-SW 238 0 min 0,000 mm 0,0 UV-I 0 W/m 0,8 C 1,2 C 4,8 km/h (1 Bft) 100,00 %
12.11.2016 21:32 1,2 C 97 % 1023,9 hPa 0,0 l/m 3,5 km/h (1 Bft) W-SW 238 0 min 0,000 mm 0,0 UV-I 0 W/m 0,8 C 1,2 C 4,8 km/h (1 Bft) 100,00 %
12.11.2016 21:34 1,2 C 97 % 1023,9 hPa 0,0 l/m 3,3 km/h (1 Bft) W-SW 238 0 min 0,000 mm 0,0 UV-I 0 W/m 0,8 C 1,2 C 4,8 km/h (1 Bft) 95,74 %
12.11.2016 21:36 1,2 C 97 % 1023,8 hPa 0,0 l/m 3,1 km/h (1 Bft) W-SW 238 0 min 0,000 mm 0,0 UV-I 0 W/m 0,8 C 1,2 C 3,2 km/h (1 Bft) 100,00 %
12.11.2016 21:38 1,1 C 97 % 1023,9 hPa 0,0 l/m 2,8 km/h (1 Bft) W-SW 238 0 min 0,000 mm 0,0 UV-I 0 W/m 0,7 C 1,1 C 4,8 km/h (1 Bft) 100,00 %
12.11.2016 21:40 1,1 C 97 % 1023,8 hPa 0,0 l/m 2,3 km/h (1 Bft) W-SW 238 0 min 0,000 mm 0,0 UV-I 0 W/m 0,7 C 1,1 C 3,2 km/h (1 Bft) 100,00 %
12.11.2016 21:42 1,1 C 97 % 1023,8 hPa 0,0 l/m 2,9 km/h (1 Bft) W-SW 238 0 min 0,000 mm 0,0 UV-I 0 W/m 0,7 C 1,1 C 4,8 km/h (1 Bft) 97,56 %
12.11.2016 21:44 1,1 C 97 % 1023,9 hPa 0,0 l/m 2,9 km/h (1 Bft) W-SW 238 0 min 0,000 mm 0,0 UV-I 0 W/m 0,7 C 1,1 C 4,8 km/h (1 Bft) 98,21 %
12.11.2016 21:46 1,1 C 97 % 1023,9 hPa 0,0 l/m 2,1 km/h (1 Bft) W-SW 238 0 min 0,000 mm 0,0 UV-I 0 W/m 0,7 C 1,1 C 3,2 km/h (1 Bft) 100,00 %
12.11.2016 21:48 1,1 C 97 % 1023,9 hPa 0,0 l/m 2,3 km/h (1 Bft) W-SW 238 0 min 0,000 mm 0,0 UV-I 0 W/m 0,7 C 1,1 C 4,8 km/h (1 Bft) 96,00 %
12.11.2016 21:50 1,1 C 97 % 1023,9 hPa 0,0 l/m 3,9 km/h (1 Bft) W-SW 238 0 min 0,000 mm 0,0 UV-I 0 W/m 0,7 C 1,1 C 6,4 km/h (2 Bft) 97,87 %
12.11.2016 21:52 1,0 C 97 % 1023,9 hPa 0,0 l/m 3,4 km/h (1 Bft) W-SW 238 0 min 0,000 mm 0,0 UV-I 0 W/m 0,6 C 1,0 C 4,8 km/h (1 Bft) 97,37 %
12.11.2016 21:54 1,0 C 97 % 1023,9 hPa 0,0 l/m 2,2 km/h (1 Bft) W-SW 238 0 min 0,000 mm 0,0 UV-I 0 W/m 0,6 C 1,0 C 3,2 km/h (1 Bft) 97,87 %
12.11.2016 21:56 1,0 C 97 % 1023,9 hPa 0,0 l/m 2,9 km/h (1 Bft) W-SW 238 0 min 0,000 mm 0,0 UV-I 0 W/m 0,6 C 1,0 C 4,8 km/h (1 Bft) 96,00 %
12.11.2016 21:58 0,9 C 97 % 1024,0 hPa 0,0 l/m 4,1 km/h (1 Bft) W-SW 245 0 min 0,000 mm 0,0 UV-I 0 W/m 0,5 C 0,9 C 6,4 km/h (2 Bft) 98,00 %
12.11.2016 22:00 0,9 C 97 % 1024,0 hPa 0,0 l/m 3,8 km/h (1 Bft) W-SW 245 0 min 0,000 mm 0,0 UV-I 0 W/m 0,5 C 0,9 C 4,8 km/h (1 Bft) 98,00 %
12.11.2016 22:03 0,9 C 97 % 1023,9 hPa 0,0 l/m 3,0 km/h (1 Bft) W-SW 246 0 min 0,000 mm 0,0 UV-I 0 W/m 0,5 C 0,9 C 4,8 km/h (1 Bft) 95,16 %
12.11.2016 22:04 0,9 C 97 % 1023,9 hPa 0,0 l/m 1,6 km/h (1 Bft) W-SW 246 0 min 0,000 mm 0,0 UV-I 0 W/m 0,5 C 0,9 C 3,2 km/h (1 Bft) 100,00 %
12.11.2016 22:06 0,9 C 97 % 1023,9 hPa 0,0 l/m 1,5 km/h (1 Bft) W-SW 246 0 min 0,000 mm 0,0 UV-I 0 W/m 0,5 C 0,9 C 3,2 km/h (1 Bft) 97,87 %
12.11.2016 22:08 0,9 C 97 % 1023,9 hPa 0,0 l/m 3,5 km/h (1 Bft) W-SW 246 0 min 0,000 mm 0,0 UV-I 0 W/m 0,5 C 0,9 C 6,4 km/h (2 Bft) 93,62 %
12.11.2016 22:10 0,9 C 97 % 1023,9 hPa 0,0 l/m 3,0 km/h (1 Bft) W-SW 246 0 min 0,000 mm 0,0 UV-I 0 W/m 0,5 C 0,9 C 4,8 km/h (1 Bft) 96,00 %
12.11.2016 22:12 0,9 C 97 % 1023,8 hPa 0,0 l/m 3,5 km/h (1 Bft) W-SW 246 0 min 0,000 mm 0,0 UV-I 0 W/m 0,5 C 0,9 C 4,8 km/h (1 Bft) 97,44 %
12.11.2016 22:14 0,9 C 97 % 1023,8 hPa 0,0 l/m 4,3 km/h (1 Bft) W-SW 246 0 min 0,000 mm 0,0 UV-I 0 W/m 0,5 C 0,9 C 4,8 km/h (1 Bft) 96,43 %
12.11.2016 22:16 0,9 C 97 % 1023,8 hPa 0,0 l/m 3,4 km/h (1 Bft) W-SW 246 0 min 0,000 mm 0,0 UV-I 0 W/m 0,5 C 0,9 C 4,8 km/h (1 Bft) 97,14 %
12.11.2016 22:18 0,9 C 97 % 1023,8 hPa 0,0 l/m 3,6 km/h (1 Bft) W-SW 246 0 min 0,000 mm 0,0 UV-I 0 W/m 0,5 C 0,9 C 4,8 km/h (1 Bft) 94,34 %
12.11.2016 22:20 0,9 C 97 % 1023,8 hPa 0,0 l/m 4,0 km/h (1 Bft) W-SW 246 0 min 0,000 mm 0,0 UV-I 0 W/m 0,5 C 0,9 C 4,8 km/h (1 Bft) 98,00 %
12.11.2016 22:22 0,9 C 97 % 1023,8 hPa 0,0 l/m 3,4 km/h (1 Bft) W-SW 246 0 min 0,000 mm 0,0 UV-I 0 W/m 0,5 C 0,9 C 4,8 km/h (1 Bft) 95,74 %
12.11.2016 22:24 0,9 C 97 % 1023,8 hPa 0,0 l/m 3,7 km/h (1 Bft) W-SW 246 0 min 0,000 mm 0,0 UV-I 0 W/m 0,5 C 0,9 C 4,8 km/h (1 Bft) 100,00 %
12.11.2016 22:26 0,9 C 97 % 1023,9 hPa 0,0 l/m 4,2 km/h (1 Bft) W-SW 247 0 min 0,000 mm 0,0 UV-I 0 W/m 0,5 C 0,9 C 4,8 km/h (1 Bft) 100,00 %
12.11.2016 22:28 0,8 C 97 % 1023,9 hPa 0,0 l/m 4,4 km/h (1 Bft) W-SW 247 0 min 0,000 mm 0,0 UV-I 0 W/m 0,4 C 0,8 C 6,4 km/h (2 Bft) 97,96 %
12.11.2016 22:30 0,8 C 97 % 1023,9 hPa 0,0 l/m 4,8 km/h (1 Bft) W-SW 247 0 min 0,000 mm 0,0 UV-I 0 W/m 0,4 C 0,8 C 6,4 km/h (2 Bft) 100,00 %
12.11.2016 22:32 0,8 C 97 % 1023,9 hPa 0,0 l/m 4,5 km/h (1 Bft) W-SW 247 0 min 0,000 mm 0,0 UV-I 0 W/m 0,4 C 0,8 C 6,4 km/h (2 Bft) 100,00 %
12.11.2016 22:34 0,8 C 97 % 1023,9 hPa 0,0 l/m 2,9 km/h (1 Bft) W-SW 247 0 min 0,000 mm 0,0 UV-I 0 W/m 0,4 C 0,8 C 4,8 km/h (1 Bft) 100,00 %
12.11.2016 22:36 0,8 C 97 % 1023,9 hPa 0,0 l/m 2,8 km/h (1 Bft) W-SW 247 0 min 0,000 mm 0,0 UV-I 0 W/m 0,4 C 0,8 C 3,2 km/h (1 Bft) 97,87 %
12.11.2016 22:38 0,8 C 97 % 1023,9 hPa 0,0 l/m 3,2 km/h (1 Bft) W-SW 247 0 min 0,000 mm 0,0 UV-I 0 W/m 0,4 C 0,8 C 4,8 km/h (1 Bft) 100,00 %
12.11.2016 22:40 0,8 C 97 % 1023,9 hPa 0,0 l/m 3,5 km/h (1 Bft) W-SW 247 0 min 0,000 mm 0,0 UV-I 0 W/m 0,4 C 0,8 C 4,8 km/h (1 Bft) 100,00 %
12.11.2016 22:42 0,8 C 97 % 1023,9 hPa 0,0 l/m 3,1 km/h (1 Bft) W-SW 247 0 min 0,000 mm 0,0 UV-I 0 W/m 0,4 C 0,8 C 4,8 km/h (1 Bft) 97,14 %
12.11.2016 22:44 0,8 C 97 % 1023,9 hPa 0,0 l/m 3,2 km/h (1 Bft) W-SW 247 0 min 0,000 mm 0,0 UV-I 0 W/m 0,4 C 0,8 C 4,8 km/h (1 Bft) 100,00 %
12.11.2016 22:46 0,8 C 97 % 1023,9 hPa 0,0 l/m 3,8 km/h (1 Bft) W-SW 247 0 min 0,000 mm 0,0 UV-I 0 W/m 0,4 C 0,8 C 4,8 km/h (1 Bft) 97,44 %
12.11.2016 22:48 0,8 C 97 % 1023,9 hPa 0,0 l/m 3,8 km/h (1 Bft) W-SW 247 0 min 0,000 mm 0,0 UV-I 0 W/m 0,4 C 0,8 C 4,8 km/h (1 Bft) 100,00 %
12.11.2016 22:50 0,8 C 97 % 1023,9 hPa 0,0 l/m 2,5 km/h (1 Bft) W-SW 247 0 min 0,000 mm 0,0 UV-I 0 W/m 0,4 C 0,8 C 4,8 km/h (1 Bft) 100,00 %
12.11.2016 22:52 0,8 C 97 % 1023,9 hPa 0,0 l/m 0,2 km/h (0 Bft) W-SW 247 0 min 0,000 mm 0,0 UV-I 0 W/m 0,4 C 0,8 C 1,6 km/h (1 Bft) 100,00 %
12.11.2016 22:54 0,7 C 97 % 1023,8 hPa 0,0 l/m 0,1 km/h (0 Bft) W-SW 247 0 min 0,000 mm 0,0 UV-I 0 W/m 0,3 C 0,7 C 1,6 km/h (1 Bft) 100,00 %
12.11.2016 22:56 0,7 C 97 % 1023,9 hPa 0,0 l/m 0,4 km/h (0 Bft) W-SW 247 0 min 0,000 mm 0,0 UV-I 0 W/m 0,3 C 0,7 C 1,6 km/h (1 Bft) 100,00 %
12.11.2016 22:58 0,7 C 97 % 1023,9 hPa 0,0 l/m 0,0 km/h (0 Bft) W-SW 247 0 min 0,000 mm 0,0 UV-I 0 W/m 0,3 C 0,7 C 0,0 km/h (0 Bft) 100,00 %
12.11.2016 23:00 0,7 C 97 % 1023,9 hPa 0,0 l/m 0,5 km/h (0 Bft) W-SW 247 0 min 0,000 mm 0,0 UV-I 0 W/m 0,3 C 0,7 C 1,6 km/h (1 Bft) 100,00 %
12.11.2016 23:02 0,7 C 97 % 1023,9 hPa 0,0 l/m 0,2 km/h (0 Bft) W-SW 247 0 min 0,000 mm 0,0 UV-I 0 W/m 0,3 C 0,7 C 1,6 km/h (1 Bft) 100,00 %
12.11.2016 23:04 0,7 C 97 % 1023,9 hPa 0,0 l/m 0,1 km/h (0 Bft) W-SW 247 0 min 0,000 mm 0,0 UV-I 0 W/m 0,3 C 0,7 C 1,6 km/h (1 Bft) 95,74 %
12.11.2016 23:06 0,7 C 97 % 1023,9 hPa 0,0 l/m 0,0 km/h (0 Bft) W-SW 247 0 min 0,000 mm 0,0 UV-I 0 W/m 0,3 C 0,7 C 0,0 km/h (0 Bft) 100,00 %
12.11.2016 23:08 0,7 C 97 % 1023,9 hPa 0,0 l/m 0,0 km/h (0 Bft) W-SW 247 0 min 0,000 mm 0,0 UV-I 0 W/m 0,3 C 0,7 C 0,0 km/h (0 Bft) 100,00 %
12.11.2016 23:10 0,7 C 98 % 1023,8 hPa 0,0 l/m 0,1 km/h (0 Bft) W-SW 247 0 min 0,000 mm 0,0 UV-I 0 W/m 0,4 C 0,7 C 1,6 km/h (1 Bft) 100,00 %
12.11.2016 23:12 0,7 C 98 % 1023,8 hPa 0,0 l/m 0,1 km/h (0 Bft) W-SW 247 0 min 0,000 mm 0,0 UV-I 0 W/m 0,4 C 0,7 C 1,6 km/h (1 Bft) 100,00 %
12.11.2016 23:14 0,7 C 98 % 1023,8 hPa 0,0 l/m 0,3 km/h (0 Bft) W-SW 247 0 min 0,000 mm 0,0 UV-I 0 W/m 0,4 C 0,7 C 1,6 km/h (1 Bft) 97,37 %
12.11.2016 23:16 0,8 C 97 % 1023,9 hPa 0,0 l/m 0,2 km/h (0 Bft) W-SW 247 0 min 0,000 mm 0,0 UV-I 0 W/m 0,4 C 0,8 C 1,6 km/h (1 Bft) 98,21 %
12.11.2016 23:18 0,8 C 97 % 1023,9 hPa 0,0 l/m 0,6 km/h (0 Bft) W-SW 247 0 min 0,000 mm 0,0 UV-I 0 W/m 0,4 C 0,8 C 1,6 km/h (1 Bft) 100,00 %
12.11.2016 23:20 0,7 C 97 % 1023,9 hPa 0,0 l/m 0,9 km/h (0 Bft) W-SW 247 0 min 0,000 mm 0,0 UV-I 0 W/m 0,3 C 0,7 C 1,6 km/h (1 Bft) 100,00 %
12.11.2016 23:22 0,7 C 97 % 1024,0 hPa 0,0 l/m 0,7 km/h (0 Bft) W-SW 247 0 min 0,000 mm 0,0 UV-I 0 W/m 0,3 C 0,7 C 1,6 km/h (1 Bft) 100,00 %
12.11.2016 23:24 0,7 C 97 % 1023,9 hPa 0,0 l/m 0,0 km/h (0 Bft) W-SW 247 0 min 0,000 mm 0,0 UV-I 0 W/m 0,3 C 0,7 C 0,0 km/h (0 Bft) 100,00 %
12.11.2016 23:26 0,7 C 97 % 1024,0 hPa 0,0 l/m 0,0 km/h (0 Bft) W-SW 247 0 min 0,000 mm 0,0 UV-I 0 W/m 0,3 C 0,7 C 0,0 km/h (0 Bft) 97,87 %
12.11.2016 23:28 0,7 C 97 % 1024,0 hPa 0,0 l/m 0,0 km/h (0 Bft) W-SW 247 0 min 0,000 mm 0,0 UV-I 0 W/m 0,3 C 0,7 C 0,0 km/h (0 Bft) 100,00 %
12.11.2016 23:30 0,7 C 97 % 1024,0 hPa 0,0 l/m 0,3 km/h (0 Bft) W-SW 247 0 min 0,000 mm 0,0 UV-I 0 W/m 0,3 C 0,7 C 1,6 km/h (1 Bft) 100,00 %
12.11.2016 23:32 0,7 C 97 % 1024,0 hPa 0,0 l/m 0,4 km/h (0 Bft) W-SW 247 0 min 0,000 mm 0,0 UV-I 0 W/m 0,3 C 0,7 C 1,6 km/h (1 Bft) 98,00 %
12.11.2016 23:34 0,7 C 97 % 1024,1 hPa 0,0 l/m 0,6 km/h (0 Bft) W-SW 247 0 min 0,000 mm 0,0 UV-I 0 W/m 0,3 C 0,7 C 1,6 km/h (1 Bft) 100,00 %
12.11.2016 23:36 0,7 C 97 % 1024,1 hPa 0,0 l/m 0,0 km/h (0 Bft) W-SW 247 0 min 0,000 mm 0,0 UV-I 0 W/m 0,3 C 0,7 C 0,0 km/h (0 Bft) 97,87 %
12.11.2016 23:38 0,7 C 97 % 1024,1 hPa 0,0 l/m 0,0 km/h (0 Bft) W-SW 247 0 min 0,000 mm 0,0 UV-I 0 W/m 0,3 C 0,7 C 0,0 km/h (0 Bft) 100,00 %
12.11.2016 23:40 0,7 C 97 % 1024,0 hPa 0,0 l/m 0,0 km/h (0 Bft) W-SW 247 0 min 0,000 mm 0,0 UV-I 0 W/m 0,3 C 0,7 C 0,0 km/h (0 Bft) 100,00 %
12.11.2016 23:42 0,6 C 97 % 1024,0 hPa 0,0 l/m 0,0 km/h (0 Bft) W-SW 247 0 min 0,000 mm 0,0 UV-I 0 W/m 0,2 C 0,6 C 0,0 km/h (0 Bft) 100,00 %
12.11.2016 23:44 0,6 C 97 % 1024,0 hPa 0,0 l/m 0,0 km/h (0 Bft) W-SW 247 0 min 0,000 mm 0,0 UV-I 0 W/m 0,2 C 0,6 C 0,0 km/h (0 Bft) 100,00 %
12.11.2016 23:46 0,6 C 97 % 1024,0 hPa 0,0 l/m 0,0 km/h (0 Bft) W-SW 247 0 min 0,000 mm 0,0 UV-I 0 W/m 0,2 C 0,6 C 0,0 km/h (0 Bft) 100,00 %
12.11.2016 23:48 0,6 C 97 % 1024,0 hPa 0,0 l/m 0,0 km/h (0 Bft) W-SW 247 0 min 0,000 mm 0,0 UV-I 0 W/m 0,2 C 0,6 C 1,6 km/h (1 Bft) 97,37 %
12.11.2016 23:50 0,6 C 97 % 1024,0 hPa 0,0 l/m 1,7 km/h (1 Bft) W-SW 247 0 min 0,000 mm 0,0 UV-I 0 W/m 0,2 C 0,6 C 3,2 km/h (1 Bft) 100,00 %
12.11.2016 23:52 0,6 C 97 % 1024,1 hPa 0,0 l/m 2,2 km/h (1 Bft) W-SW 247 0 min 0,000 mm 0,0 UV-I 0 W/m 0,2 C 0,6 C 3,2 km/h (1 Bft) 98,00 %
12.11.2016 23:54 0,5 C 97 % 1024,1 hPa 0,0 l/m 3,4 km/h (1 Bft) W-SW 247 0 min 0,000 mm 0,0 UV-I 0 W/m 0,1 C 0,5 C 4,8 km/h (1 Bft) 100,00 %
12.11.2016 23:56 0,4 C 97 % 1024,0 hPa 0,0 l/m 2,6 km/h (1 Bft) W-SW 247 0 min 0,000 mm 0,0 UV-I 0 W/m -0,0 C 0,4 C 4,8 km/h (1 Bft) 98,00 %
12.11.2016 23:58 0,4 C 97 % 1024,0 hPa 0,0 l/m 0,8 km/h (0 Bft) W-SW 247 0 min 0,000 mm 0,0 UV-I 0 W/m -0,0 C 0,4 C 3,2 km/h (1 Bft) 96,00 %
_ Min-Zeit 06:58 00:54 00:04 - 07:12 - - - - - - 06:58 01:22 07:12 12:08
Minimum _ 0,4 C 95 % 1018,3 hPa - 0,0 km/h (0 Bft) - - - - - - -0,0 C -4,0 C 0,0 km/h (0 Bft) 87,23 %
_ Max-Zeit 00:00 04:36 23:34 00:50 00:44 - - 00:00 12:00 00:00 10:34 00:00 00:24 00:50 00:00
Maximum _ 4,1 C 98 % 1024,1 hPa 0,2 l/m 17,2 km/h
W-SW (3 Bft)
- - 0 min 0,026 mm 0,0 UV-I 78 W/m 3,7 C 4,1 C 27,4 km/h
W-SW (4 Bft)
100,00 %
Durchschnitt _ 1,5 C 97 % 1022,0 hPa #9,6 l/m 3,8 km/h (1 Bft) W - #0 min. #0,076 mm 0,0 UV-I 30 W/m 1,1 C 1,1 C 6,3 km/h (2 Bft) 98,32 %